GFSNE_prec_cloud_003.txt.gz
Cloud_Cover
1 5 73 58 87 68 99 100 100 100 100 100 100 100 100 97 100 100 83 68 86 72 100 94 100 100 100 100 100 100 100 62 92 95 50 74 41 5
5 40 35 30 45 98 54 85 100 100 100 79 85 100 100 99 100 100 100 93 72 100 100 92 62 100 100 100 100 100 60 99 100 89 8 5 5 5
3 5 5 5 5 5 5 5 86 100 100 12 32 88 100 91 68 100 100 100 100 100 100 100 100 100 100 100 100 100 100 74 98 39 78 15 74 5
16 0 0 0 0 1 4 5 32 93 100 100 99 99 99 100 100 100 100 100 100 100 100 100 100 100 100 100 100 100 100 94 84 7 98 100 95 12
38 16 0 0 0 0 0 0 1 5 60 100 93 100 100 100 100 100 100 100 100 100 100 100 100 100 100 100 100 100 100 100 14 59 100 100 78 5
0 0 1 5 0 0 3 20 25 39 52 40 66 98 100 92 100 100 86 100 100 100 100 100 100 100 100 100 100 99 100 100 88 100 100 100 46 100
2 4 2 4 2 5 5 1 31 28 79 84 76 35 96 100 78 100 100 100 100 100 100 100 100 100 100 100 100 100 100 100 100 100 100 82 100 100
6 2 1 6 1 6 4 8 85 100 100 99 82 86 58 74 100 100 100 100 100 100 100 100 100 100 100 100 100 100 100 100 100 100 99 100 100 100
65 41 22 42 54 50 63 9 7 9 95 100 100 100 100 97 100 100 100 100 100 100 100 100 100 100 100 100 100 100 100 100 100 100 100 100 100 100
77 64 23 5 5 5 93 100 100 97 53 94 100 100 97 100 100 100 100 100 100 100 100 100 100 100 100 100 100 100 100 100 100 100 100 100 100 100
5 5 6 5 5 4 99 100 100 100 100 93 97 64 92 100 100 100 100 100 100 100 100 100 100 100 100 100 100 100 100 100 100 100 100 100 100 84
5 5 5 48 5 16 100 100 100 100 100 100 100 100 100 100 100 100 100 100 100 100 100 100 100 100 100 100 100 100 100 100 100 100 100 100 98 59
5 14 5 16 74 100 100 100 100 100 100 100 100 100 100 100 100 100 100 100 100 100 100 100 100 100 100 100 100 100 100 100 100 100 100 54 42 10
66 22 5 10 96 100 71 100 100 100 100 100 100 100 100 100 100 100 100 100 100 100 100 100 100 100 100 100 100 100 100 100 100 100 96 93 4 1
82 5 11 100 100 100 100 100 100 100 100 100 100 100 100 100 100 100 100 100 100 100 100 100 100 100 100 100 100 100 100 100 98 98 100 5 1 0
5 6 98 100 100 100 100 100 100 100 100 100 100 100 100 100 100 100 100 100 100 100 100 100 100 100 100 100 100 100 100 92 100 31 5 2 0 0
81 90 100 100 100 100 100 100 100 100 100 100 100 100 100 100 100 100 100 100 100 100 100 100 100 100 100 100 100 100 100 94 90 8 5 4 0 0
100 100 100 100 100 100 100 100 100 100 100 100 100 100 100 100 100 100 100 100 100 100 100 100 100 100 97 95 100 100 100 100 72 5 5 5 3 2
100 100 100 100 100 100 100 100 100 100 100 100 100 100 100 100 100 100 100 100 100 100 100 100 100 99 100 97 16 87 100 78 5 5 5 22 100 99
100 100 100 100 100 100 100 100 100 100 100 100 100 100 100 100 100 100 100 100 100 94 100 93 82 93 97 71 5 5 5 5 5 5 5 79 100 59
100 100 100 100 99 100 100 100 100 100 100 100 100 100 100 100 100 100 100 100 100 88 91 94 100 96 87 58 39 5 5 37 12 32 100 100 93 84
100 100 97 99 100 100 100 100 100 100 100 100 100 100 100 100 100 100 100 100 100 100 100 100 86 80 99 74 32 38 76 61 41 97 100 100 99 98
100 99 100 82 99 100 100 100 100 100 100 100 100 100 100 100 100 100 100 100 100 100 100 40 53 90 76 76 44 50 100 100 100 70 83 97 100 100

GFSNE_prec_cloud_006.txt.gz
Cloud_Cover
7 5 4 5 5 25 5 5 52 100 90 93 100 100 100 100 100 100 100 100 100 93 100 100 31 56 100 100 100 100 100 100 100 100 100 100 100 100
5 2 3 3 3 2 1 4 11 93 99 72 84 100 100 100 100 100 100 100 100 100 100 100 37 78 60 100 100 100 100 100 100 100 100 100 100 42
0 0 2 5 5 5 5 5 5 13 79 0 9 2 35 99 100 100 100 100 100 100 100 99 100 92 63 84 100 100 100 100 100 100 82 100 100 81
5 5 5 5 4 2 0 1 11 6 56 100 30 61 5 1 7 46 100 100 100 100 100 100 87 100 100 100 100 100 100 100 100 100 100 100 100 99
58 5 5 5 5 10 5 19 18 14 53 100 100 100 100 31 5 8 33 97 100 100 100 100 100 100 100 100 100 100 100 100 100 100 100 100 97 55
10 69 64 99 100 100 91 100 100 100 100 100 100 100 100 100 100 97 100 89 78 100 100 100 100 99 100 100 100 100 100 100 100 100 100 100 100 90
100 100 100 100 100 95 70 6 89 100 100 100 100 100 100 100 100 100 88 79 44 94 100 100 100 100 100 100 100 100 100 100 100 100 100 100 100 100
39 66 100 100 100 98 96 100 100 69 100 100 100 100 100 100 82 96 100 100 100 80 100 100 100 100 100 100 100 100 100 100 100 100 100 100 100 100
83 86 60 78 100 100 100 100 100 97 100 100 100 100 100 100 100 99 100 92 100 100 100 100 100 100 100 100 100 100 100 100 100 100 100 100 100 100
11 5 14 7 5 99 18 5 8 84 100 100 100 100 100 100 100 100 100 100 100 100 100 100 100 100 100 100 100 100 100 100 100 100 100 100 100 100
0 0 5 5 7 55 73 8 18 100 79 100 100 100 100 100 100 100 100 100 100 100 100 100 100 100 100 100 100 100 100 100 100 100 100 100 100 100
6 5 10 62 54 19 49 52 100 100 100 100 100 93 100 100 100 100 100 100 100 100 100 100 100 100 100 100 100 100 100 100 100 100 100 100 100 100
68 26 5 5 5 5 82 100 100 100 100 100 100 100 100 100 100 100 100 100 100 100 100 100 100 100 100 100 100 100 100 100 100 100 100 100 100 100
92 24 12 12 6 98 100 100 100 100 100 100 100 100 100 100 100 100 100 100 100 100 100 100 100 100 100 100 100 100 100 100 100 100 100 100 100 100
88 92 71 70 100 100 100 100 100 100 100 100 100 100 100 100 100 100 100 100 100 100 100 100 100 100 100 100 100 100 100 100 100 100 100 100 100 100
45 10 33 99 90 98 76 98 100 100 100 100 100 100 100 100 100 100 100 100 100 100 100 100 100 100 100 100 100 100 100 100 100 100 100 100 78 58
100 5 15 6 32 52 65 100 100 100 100 100 100 100 100 100 100 100 100 100 100 100 100 100 100 100 100 100 100 100 100 100 100 100 100 84 42 2
36 51 90 72 97 94 100 100 100 100 100 100 100 100 100 100 100 100 100 100 100 100 100 100 100 100 100 100 100 100 100 92 100 78 6 5 4 3
5 99 91 100 91 100 100 100 100 100 100 100 100 100 100 100 100 100 100 100 100 100 100 100 100 100 100 100 84 73 100 7 5 5 5 5 5 2
96 100 98 100 100 100 100 100 100 100 100 100 100 100 100 100 100 100 100 100 100 100 100 100 100 100 98 78 100 49 57 41 5 1 4 5 16 86
100 67 96 96 100 100 100 100 100 100 100 100 100 100 100 100 100 100 100 100 100 100 100 100 94 72 88 47 9 28 5 5 52 92 97 91 88 99
74 96 100 95 100 99 100 100 100 100 100 100 100 100 100 100 100 100 100 100 100 100 100 95 100 98 98 67 17 26 68 59 48 32 75 98 98 82
85 100 100 100 100 100 100 100 100 100 100 100 100 100 100 100 100 100 100 100 100 93 95 92 65 80 77 88 76 70 61 32 72 93 100 100 97 100

GFSNE_prec_cloud_009.txt.gz
Cloud_Cover
4 2 0 0 3 5 5 14 61 100 100 98 81 44 73 35 15 11 99 95 100 100 100 100 100 100 100 100 100 100 100 100 100 100 100 100 100 100
0 0 0 4 5 5 16 98 100 99 96 19 56 2 1 0 0 5 5 100 100 100 100 100 100 100 100 100 100 100 100 100 100 100 100 100 100 100
0 0 0 1 3 6 71 100 100 100 100 5 26 45 100 92 94 49 40 28 99 100 100 100 100 100 100 100 100 100 100 95 100 100 100 100 100 100
0 0 2 4 11 16 9 65 98 100 100 97 33 59 86 96 100 100 100 100 100 100 100 100 100 100 100 100 100 100 100 100 100 100 100 100 100 100
0 2 5 63 17 16 84 55 87 74 100 100 55 88 86 100 30 40 100 100 100 100 100 100 100 100 99 100 100 100 100 100 100 100 100 100 100 100
1 5 5 5 5 6 41 77 92 94 99 100 100 97 73 85 100 100 97 100 100 100 100 100 100 100 98 100 100 100 100 100 100 100 100 100 100 100
0 0 5 5 5 6 63 6 41 75 43 87 60 87 82 98 100 100 100 100 94 100 100 100 94 97 100 90 100 100 100 100 100 100 100 100 100 100
0 0 4 5 4 3 6 5 51 99 74 70 8 77 37 100 100 100 100 100 90 100 100 100 96 89 70 92 100 100 100 100 100 100 100 100 100 100
0 0 0 1 4 5 5 7 48 65 11 75 77 48 96 100 100 100 100 100 100 100 100 100 100 99 54 100 100 100 100 100 100 100 100 100 100 100
5 0 5 5 5 5 74 100 99 5 5 5 92 100 75 67 100 100 100 100 100 100 100 100 100 100 99 100 100 100 100 100 100 100 100 100 100 100
5 5 16 5 8 96 99 100 5 5 6 90 100 91 100 100 100 100 100 100 100 100 100 100 100 100 100 100 100 100 100 100 100 100 100 100 100 100
72 94 5 5 95 100 100 97 100 100 100 86 48 97 100 100 100 100 100 100 100 100 100 100 100 100 100 100 100 100 100 100 100 100 100 100 100 100
58 49 7 71 100 92 100 100 100 100 100 100 99 99 100 100 100 100 100 100 100 100 100 100 100 100 100 100 100 100 100 100 100 100 100 100 100 100
98 90 85 100 100 100 94 99 100 100 100 95 100 89 85 100 100 100 99 100 100 100 100 100 100 100 100 100 100 100 100 100 100 100 100 100 100 100
95 100 99 70 90 26 55 97 100 98 100 100 100 100 85 100 100 88 100 100 100 100 100 100 100 100 100 100 100 100 100 100 100 100 100 100 100 100
100 77 5 5 92 81 78 98 100 96 100 100 100 100 92 100 100 100 100 100 100 100 100 100 100 100 100 100 100 100 100 100 100 100 100 100 100 100
100 11 5 84 100 100 92 100 96 100 100 100 100 100 100 88 100 100 100 100 100 100 100 100 100 100 100 100 100 100 100 100 100 100 100 100 100 100
100 20 76 100 100 100 99 97 100 100 100 100 100 100 100 100 100 100 100 100 100 100 100 100 100 100 100 100 100 100 100 100 100 100 100 100 100 100
46 85 100 100 100 100 99 100 100 100 100 100 100 100 100 100 100 100 100 100 100 100 100 100 100 100 100 100 100 100 100 100 100 100 100 93 69 12
100 99 100 100 100 100 100 100 100 100 100 100 100 100 100 100 100 100 100 100 100 100 100 100 100 100 100 100 100 100 100 93 72 13 6 5 5 4
100 92 100 100 100 100 100 100 100 100 100 100 100 100 100 100 100 100 100 100 100 100 100 100 100 100 100 100 100 81 41 6 57 11 7 21 37 62
92 100 100 100 100 100 100 100 100 100 100 100 100 100 100 100 100 100 100 100 100 100 100 100 100 100 94 83 74 23 38 72 89 99 79 89 94 80
100 100 100 100 100 100 100 100 100 100 100 100 100 100 100 100 100 100 100 100 100 100 100 100 86 69 76 73 70 71 59 48 76 81 100 100 100 100

GFSNE_prec_cloud_012.txt.gz
Cloud_Cover
1 0 0 0 0 2 73 32 30 50 2 0 1 3 5 5 14 67 44 5 28 99 100 100 100 100 100 100 100 100 100 100 100 86 98 100 100 100
0 0 0 0 0 19 12 58 75 98 92 0 0 8 42 100 100 100 100 93 39 32 98 100 100 99 100 100 100 100 100 100 100 100 57 96 100 100
0 0 0 1 39 7 42 56 71 89 97 5 5 4 5 86 86 100 100 100 100 100 100 100 100 88 35 82 99 100 100 100 100 100 100 97 100 100
0 0 2 3 5 5 5 5 5 85 100 50 5 0 0 13 56 100 100 100 100 100 100 100 100 100 100 100 100 100 100 100 100 100 100 100 100 100
5 0 0 0 0 0 0 4 10 100 61 5 5 4 3 0 3 4 45 100 100 100 100 100 100 100 100 100 100 100 100 100 100 100 100 100 100 100
2 5 2 0 0 0 1 4 40 26 25 90 81 50 8 5 5 5 4 54 84 100 100 100 100 100 100 100 100 100 100 100 100 100 100 100 100 100
0 5 5 5 5 5 46 6 21 68 99 100 100 100 100 62 38 22 37 5 100 100 98 71 100 61 100 100 100 100 100 100 90 100 100 100 100 100
4 0 0 4 5 30 34 72 90 100 100 100 100 100 100 94 97 87 100 100 82 83 100 100 99 100 100 100 100 43 100 100 90 100 100 100 100 100
5 5 5 20 86 28 5 70 81 96 95 55 73 77 100 12 95 100 100 100 100 81 95 90 100 100 100 100 100 100 100 38 72 100 100 100 100 100
5 5 80 26 5 98 92 91 100 20 5 86 100 100 96 100 99 83 100 100 100 100 100 100 100 100 100 100 100 100 100 72 84 100 100 100 100 100
5 6 86 26 71 100 100 79 5 18 5 10 82 73 100 64 66 100 100 100 100 100 86 100 98 100 93 100 100 50 91 96 100 100 100 100 100 100
51 69 5 93 100 100 100 100 98 5 26 65 70 24 89 100 100 100 100 100 100 100 44 93 100 100 100 100 98 100 100 100 100 100 100 100 100 100
50 5 5 65 100 99 99 100 100 100 94 46 76 86 76 100 100 100 100 100 100 100 99 100 100 100 100 100 100 100 100 100 100 100 100 100 100 100
60 5 83 100 100 15 61 100 100 100 72 96 99 99 100 100 100 100 100 100 100 100 86 100 100 100 100 100 100 100 100 100 100 100 100 100 100 100
11 98 76 96 7 5 66 93 85 69 98 100 100 100 100 100 100 100 100 100 91 100 98 97 100 100 100 100 100 100 100 100 100 100 100 100 100 100
94 100 45 10 5 21 51 59 96 100 100 100 100 100 100 98 100 90 100 83 95 100 100 100 100 100 100 100 100 100 100 100 100 100 100 100 100 100
100 55 5 19 76 95 99 100 100 100 100 100 100 100 100 100 86 95 99 100 100 100 100 99 100 100 100 100 100 100 100 100 100 100 100 100 100 100
37 17 90 100 100 100 100 100 100 100 100 100 100 100 100 100 99 94 100 100 100 100 100 100 100 100 100 100 100 100 100 100 100 100 100 100 100 100
5 96 85 100 100 100 100 100 100 100 100 100 100 100 100 100 100 100 100 100 100 100 100 100 100 100 100 100 100 100 100 100 100 100 100 100 100 100
78 100 100 100 100 100 100 100 100 100 100 100 100 100 100 100 100 100 100 100 100 100 100 100 100 100 100 100 100 100 100 100 100 100 100 100 100 100
100 100 100 100 100 100 100 100 100 100 100 100 100 100 100 100 100 100 100 100 100 100 100 100 100 100 100 100 100 100 100 100 100 100 100 100 100 100
100 100 100 100 100 100 100 100 100 100 100 100 100 100 100 100 100 100 100 100 100 100 100 100 100 100 100 100 100 100 100 100 100 100 100 96 100 100
100 100 100 100 100 100 100 100 100 100 100 100 100 100 100 100 100 100 100 100 100 100 100 100 100 100 100 100 100 100 100 100 100 100 100 100 79 100

GFSNE_prec_cloud_015.txt.gz
Cloud_Cover
0 0 0 0 3 5 64 82 33 96 5 0 1 3 45 30 5 4 37 98 99 100 100 100 100 100 100 99 100 100 100 100 100 100 100 99 100 100
0 0 0 0 3 3 7 5 61 84 77 0 0 16 48 3 0 0 1 0 14 62 100 100 100 100 81 92 83 38 19 98 100 100 100 100 100 100
0 0 5 4 0 0 0 0 0 3 4 0 3 23 29 2 0 2 0 0 0 1 30 100 100 100 100 45 88 99 99 14 82 100 100 100 100 100
0 5 0 0 0 0 0 1 5 7 5 58 51 9 5 5 6 9 5 5 1 0 0 1 30 100 100 100 99 27 87 100 88 68 58 100 100 100
0 0 0 0 0 1 5 5 77 70 46 5 80 12 5 36 5 5 17 5 5 5 5 5 4 87 100 100 100 100 63 94 100 100 100 69 100 100
0 0 2 5 5 8 39 88 66 5 5 5 5 5 5 5 5 11 5 5 5 5 36 100 20 2 95 100 88 98 68 96 55 76 100 78 100 100
5 5 5 5 5 86 100 98 82 8 75 9 5 68 69 5 5 12 96 42 9 79 63 1 37 5 6 100 100 100 100 100 100 100 24 100 100 100
5 5 5 5 49 98 70 99 100 100 67 100 53 61 14 5 15 99 100 100 100 33 5 5 100 55 5 8 100 100 100 99 94 100 50 52 97 100
40 5 5 68 89 5 14 86 54 58 13 88 100 97 85 5 86 100 100 100 100 20 76 98 57 100 100 100 100 100 98 100 100 100 100 100 99 100
97 8 88 82 17 100 35 100 5 0 6 96 100 78 81 54 77 94 95 86 86 18 95 100 100 78 88 100 96 100 25 50 46 100 100 100 100 100
14 61 91 6 80 100 100 30 5 5 5 80 100 100 100 82 100 100 96 100 84 7 100 100 72 99 100 100 100 100 100 99 100 100 100 100 100 100
68 88 15 57 100 100 100 84 7 5 91 59 5 5 11 18 98 100 100 100 100 100 100 100 99 100 100 99 72 100 97 100 98 52 100 100 100 100
98 21 23 12 100 100 100 46 70 100 87 8 22 64 69 80 85 100 100 100 100 100 100 100 99 100 100 70 99 63 97 100 100 100 100 100 100 100
85 38 46 100 88 98 24 92 100 97 34 97 100 98 100 100 100 100 100 100 100 100 99 100 99 97 100 100 100 57 100 100 100 100 100 100 100 100
92 100 93 8 31 34 14 84 96 86 100 100 100 100 100 100 99 97 87 100 99 100 100 100 100 100 100 100 99 99 100 100 100 100 100 100 100 100
100 36 5 5 87 93 5 32 100 100 100 100 100 100 100 100 100 100 100 99 100 100 100 100 100 100 100 100 100 100 100 100 100 100 100 100 100 100
100 5 4 84 69 5 45 100 100 100 100 100 100 100 100 100 100 95 100 100 100 100 100 100 100 100 100 100 100 100 100 100 100 100 100 100 100 100
91 13 62 95 97 100 100 100 100 100 100 100 100 100 100 100 100 100 100 100 100 100 100 100 100 100 100 100 100 100 100 100 100 100 100 100 100 100
97 99 100 100 100 100 100 100 100 100 100 100 100 100 100 100 100 100 100 100 100 100 100 100 100 100 100 100 100 100 100 100 100 100 100 100 100 100
100 100 100 100 100 100 100 100 100 100 100 100 100 100 100 100 100 100 100 100 100 100 100 100 100 100 100 100 100 100 100 100 100 100 100 100 100 100
100 100 100 100 100 100 100 100 100 100 100 100 100 100 100 100 100 100 100 100 100 100 100 100 100 100 100 100 100 100 100 100 100 100 100 100 100 100
100 100 100 100 100 100 100 100 100 100 100 100 100 100 100 100 100 100 100 100 100 100 100 100 100 100 100 100 100 100 100 100 100 100 100 100 100 100
100 100 100 100 100 100 100 100 100 100 100 100 100 100 100 100 100 100 100 100 100 100 100 100 100 100 99 100 100 100 100 100 100 100 100 100 100 100

GFSNE_prec_cloud_018.txt.gz
Cloud_Cover
5 1 0 0 0 0 5 4 52 5 5 0 0 0 0 0 0 56 100 5 3 1 5 1 5 11 91 37 99 38 56 100 100 100 100 100 100 100
4 2 0 0 0 0 0 0 2 16 5 0 0 0 1 2 11 86 80 5 2 5 5 5 10 2 5 4 5 46 57 5 100 100 100 100 100 100
0 0 0 0 0 0 0 1 4 18 99 1 50 1 5 6 6 6 5 12 5 5 5 19 10 0 0 2 1 32 7 59 62 73 100 100 100 100
0 0 0 0 0 0 5 5 65 90 100 92 14 41 24 28 96 98 69 17 34 5 5 5 5 5 4 0 2 62 70 100 67 5 8 93 100 100
0 0 1 5 5 5 13 80 94 100 92 13 5 5 5 18 34 42 59 77 5 13 6 5 5 8 7 2 0 0 0 64 25 51 100 76 100 100
0 5 5 5 10 37 68 98 92 74 28 37 18 5 5 3 33 5 5 2 11 6 24 11 18 25 23 3 5 2 48 100 72 100 100 100 45 100
5 5 5 22 38 89 100 99 98 18 33 95 81 5 5 4 26 5 73 5 4 4 21 6 52 92 72 5 8 8 67 86 100 100 100 100 99 99
7 13 66 77 85 100 100 100 100 100 46 100 77 22 5 98 7 18 5 70 70 5 87 40 8 5 5 5 5 15 6 58 100 100 100 92 100 83
75 89 86 97 99 100 100 97 92 97 100 100 100 7 47 22 84 78 88 92 69 6 83 55 4 55 5 5 5 32 100 100 100 99 70 100 100 100
95 99 98 99 100 100 67 87 97 100 100 88 78 50 98 92 99 100 100 96 33 60 100 99 55 13 71 68 87 100 100 100 100 100 98 99 100 78
95 100 100 100 100 100 100 100 99 58 12 49 100 100 86 98 100 100 100 100 98 91 100 100 90 96 99 99 69 92 72 94 86 56 62 92 100 100
96 100 100 100 100 100 100 68 93 6 32 58 17 7 87 99 100 100 100 100 100 100 100 100 100 99 100 100 100 100 100 100 77 16 100 100 100 100
72 66 97 100 100 100 100 100 100 100 87 95 90 88 91 100 100 100 100 100 100 100 100 100 100 94 100 98 100 100 64 45 93 100 100 97 100 100
69 55 94 100 100 100 100 100 100 100 95 95 100 94 100 100 100 100 100 100 100 100 100 100 100 98 99 95 100 98 74 100 100 100 100 100 100 100
100 100 100 100 100 84 100 100 100 87 100 100 100 100 100 95 97 92 100 100 99 100 100 100 100 100 100 99 91 100 100 100 100 100 100 100 100 100
99 99 41 100 98 100 96 76 91 100 100 100 100 100 100 100 100 100 100 100 100 100 100 100 100 100 100 100 98 100 100 100 100 100 100 100 100 100
100 10 82 100 99 78 74 82 89 98 100 100 100 100 100 100 100 100 100 100 100 100 100 100 100 100 100 100 100 100 100 100 100 100 100 100 100 100
99 100 100 100 100 95 91 98 100 100 100 100 100 100 100 100 100 100 100 100 100 100 100 100 100 100 100 100 100 100 100 100 100 100 100 100 100 100
100 100 100 100 96 93 100 100 100 100 100 100 100 100 100 100 100 100 100 100 100 100 100 100 100 100 100 100 100 100 100 100 100 100 100 100 100 100
100 100 100 100 100 100 100 100 100 100 100 100 100 100 100 100 100 100 100 100 100 100 100 100 100 100 100 100 100 100 100 100 100 100 100 100 100 100
100 100 100 100 100 100 100 100 100 100 100 100 100 100 100 100 100 100 100 100 100 100 100 100 100 100 100 100 100 100 100 100 100 100 100 100 100 100
100 100 100 100 100 100 100 100 100 100 100 100 100 100 100 100 100 100 100 100 100 100 100 100 100 100 100 100 100 100 100 100 100 100 100 100 100 100
100 100 100 100 100 100 100 100 100 100 100 100 100 100 100 100 100 100 100 100 100 100 100 100 100 100 100 100 100 100 100 100 100 100 100 100 100 100

GFSNE_prec_cloud_021.txt.gz
Cloud_Cover
5 5 0 0 0 0 0 0 0 0 0 0 0 0 0 0 2 5 0 16 45 99 19 2 4 7 5 5 11 34 84 13 18 75 100 100 100 100
0 0 0 0 0 0 0 0 0 2 4 0 0 0 2 16 5 8 64 22 0 5 5 5 38 5 5 5 71 96 25 6 94 5 93 100 100 100
0 0 0 0 0 0 0 2 5 23 84 4 5 5 5 0 5 14 7 51 5 5 5 5 5 5 5 5 5 5 5 5 5 97 47 90 100 100
0 0 0 0 0 5 5 5 58 65 6 85 5 5 5 5 5 7 5 4 0 1 5 5 5 53 13 5 5 5 5 5 97 79 12 1 100 100
0 0 0 5 5 5 55 50 5 41 94 100 13 5 5 5 5 5 0 0 5 5 37 95 95 32 88 85 5 73 14 42 5 5 50 88 2 68
0 1 5 5 5 5 5 43 76 96 27 94 51 67 77 22 96 13 2 5 24 5 7 5 5 5 5 15 89 50 80 5 20 100 100 100 14 4
4 5 5 31 68 100 100 92 66 75 86 73 92 100 60 10 5 5 5 5 5 32 5 5 8 5 5 17 94 100 100 5 8 19 56 100 100 100
5 5 5 5 64 97 100 100 100 100 100 100 97 100 79 52 5 30 75 99 86 40 87 5 5 5 5 5 41 95 68 85 48 100 100 54 6 100
5 5 5 5 96 33 35 95 100 100 100 100 100 86 56 5 39 94 100 99 82 5 96 76 27 47 24 46 49 19 99 100 100 93 83 59 100 100
50 77 65 32 22 100 100 96 91 86 49 80 100 96 93 81 100 100 100 97 96 74 100 99 88 88 100 100 100 90 80 99 100 100 100 100 100 100
99 100 98 95 97 100 100 100 23 5 5 100 100 100 100 100 100 100 97 100 99 100 100 100 100 100 100 100 100 97 96 100 100 100 100 100 100 100
64 85 100 100 100 100 100 100 97 7 95 44 5 5 63 53 100 100 100 100 100 100 100 94 100 100 100 100 100 100 100 100 100 100 36 5 5 29
92 53 76 100 100 100 100 100 98 100 88 9 52 99 100 100 100 100 100 100 100 100 86 100 100 98 100 100 100 100 100 100 98 84 94 100 100 100
98 75 97 100 100 100 100 100 100 99 12 97 100 100 100 100 100 100 93 91 100 99 100 100 100 100 100 100 100 100 100 100 100 100 100 100 100 100
100 100 100 98 85 74 96 100 100 97 99 100 100 100 100 100 86 99 76 95 93 100 95 100 100 100 100 98 99 100 100 100 100 100 100 100 100 100
90 98 47 98 82 98 70 30 76 100 100 100 100 90 94 100 100 100 100 100 100 100 100 100 100 99 94 100 100 98 99 99 100 100 100 100 100 100
100 65 61 39 94 72 72 87 100 100 100 100 100 100 100 100 100 100 100 100 100 100 100 100 100 100 100 100 99 87 98 99 100 100 100 100 100 100
100 84 99 100 100 100 100 100 100 100 100 100 100 100 100 100 100 100 100 100 100 100 100 100 100 100 95 100 100 100 100 100 100 100 100 100 100 100
100 100 100 100 100 100 100 100 100 100 100 100 100 100 100 100 100 100 100 100 100 100 100 100 100 100 100 100 100 100 100 100 100 100 100 100 100 100
100 100 100 100 100 100 100 100 100 100 100 100 100 100 100 100 100 100 100 100 100 100 100 100 100 100 100 100 100 100 100 100 100 100 100 100 100 100
100 99 100 100 100 100 100 100 100 100 100 100 100 100 100 100 100 100 100 100 100 100 100 100 100 100 100 100 100 100 100 100 100 100 100 100 100 100
100 100 100 100 100 100 100 100 100 100 100 100 100 100 100 100 100 100 100 100 100 100 100 100 100 100 100 100 100 100 100 100 100 100 100 100 100 100
100 100 100 100 100 100 100 100 100 100 100 100 100 100 100 100 100 100 100 100 100 100 100 100 100 100 100 100 100 100 100 100 100 100 100 100 100 100

GFSNE_prec_cloud_024.txt.gz
Cloud_Cover
84 92 50 6 5 4 0 0 0 3 2 0 0 0 5 2 6 92 5 4 5 5 9 12 55 8 78 96 100 100 100 100 90 100 100 66 100 65
5 5 5 4 0 0 0 0 1 5 4 0 3 4 0 9 33 43 5 5 2 23 56 44 73 93 44 21 72 100 7 87 72 69 66 26 79 86
5 2 0 0 0 0 0 3 5 11 100 4 0 1 5 3 0 4 5 5 5 44 17 5 5 5 32 83 33 91 97 100 100 100 98 99 34 98
0 0 0 0 0 0 5 5 5 5 49 46 5 5 5 4 5 5 48 6 100 88 11 7 40 84 43 98 99 65 40 81 100 100 100 100 100 100
0 0 0 0 3 5 5 5 5 25 64 100 43 5 6 5 5 12 15 58 5 25 2 5 72 98 67 90 92 100 77 13 86 71 11 38 81 84
0 0 0 5 22 9 6 56 100 100 100 38 100 92 66 18 51 100 70 15 3 2 5 6 100 5 12 100 97 89 12 94 100 90 100 100 47 100
0 3 5 5 62 89 100 93 100 89 66 100 100 98 73 95 95 31 46 5 4 5 58 35 8 5 5 5 5 25 33 6 11 81 100 100 90 46
5 5 5 20 75 98 100 100 100 100 100 100 100 93 5 31 98 100 100 100 95 84 100 5 37 43 5 33 42 100 100 99 100 100 100 100 100 61
5 5 5 5 46 5 13 95 100 96 100 100 76 59 80 86 99 90 100 100 100 99 93 99 85 75 66 7 5 26 93 100 96 20 95 100 100 80
5 7 74 8 84 100 97 100 78 85 48 89 93 100 100 100 100 100 100 78 96 100 100 100 47 98 98 100 100 100 100 96 98 80 77 92 99 100
15 100 100 80 97 100 100 100 78 51 5 5 87 100 96 100 100 100 100 100 100 100 100 50 96 95 100 100 100 100 100 100 100 100 100 100 100 96
60 82 72 100 100 100 100 96 98 6 81 95 5 5 5 15 99 100 100 100 100 100 100 94 90 91 100 100 100 100 89 94 76 90 100 100 100 100
99 93 70 56 100 100 100 100 100 100 83 6 5 34 95 98 100 100 100 100 100 100 100 100 100 100 100 100 100 100 100 91 54 67 39 92 100 100
97 39 36 99 100 100 100 100 100 100 67 57 100 100 100 98 93 100 100 100 100 100 90 100 100 99 100 99 100 100 100 100 100 100 100 100 100 100
84 86 98 100 97 50 72 100 100 93 90 100 100 100 100 100 97 100 100 100 100 100 100 100 100 100 100 100 99 96 100 100 100 100 100 100 100 100
90 100 66 48 28 53 20 98 100 100 100 100 100 100 100 100 100 100 100 100 100 100 100 100 98 91 97 98 91 87 100 100 100 100 100 100 100 100
100 44 5 16 70 93 100 100 100 100 100 100 100 100 100 100 100 100 100 100 100 100 100 100 100 82 86 89 93 98 100 100 100 100 100 100 100 100
90 13 83 100 100 100 100 100 100 100 100 100 100 100 100 100 100 100 100 100 100 100 100 100 100 78 74 97 100 100 100 100 100 100 100 100 100 100
15 89 100 100 100 100 100 100 100 100 100 100 100 100 100 100 100 100 100 100 100 100 100 100 98 93 88 96 100 100 100 100 100 100 100 100 100 100
95 100 100 100 100 100 100 100 100 100 100 100 100 100 100 100 100 100 100 100 100 100 100 100 100 100 100 100 100 100 100 100 100 100 100 100 100 100
100 100 100 100 100 100 100 100 100 100 100 100 100 100 100 100 100 100 100 100 100 100 100 100 100 100 100 100 100 100 100 100 100 100 100 100 100 100
100 100 100 100 100 100 100 100 100 100 100 100 100 100 100 100 100 100 100 100 100 100 100 100 100 100 100 100 100 100 100 100 100 100 100 100 100 100
100 100 100 100 100 100 100 100 100 100 100 100 100 100 100 100 100 100 100 94 100 100 100 100 100 100 100 100 100 100 100 100 100 100 100 100 100 100

GFSNE_prec_cloud_027.txt.gz
Cloud_Cover
5 5 5 5 3 5 5 0 0 5 0 0 3 0 5 5 5 5 4 0 5 5 32 100 67 96 100 96 100 99 100 100 100 100 100 100 100 86
10 5 6 2 0 0 0 0 0 2 53 2 0 3 0 4 5 5 1 4 1 5 54 100 100 95 99 100 90 38 96 70 70 100 100 100 100 100
11 5 1 0 0 0 0 0 3 74 43 1 0 0 2 5 5 4 5 5 5 13 100 100 100 99 100 100 41 66 100 100 100 100 100 100 100 100
0 0 0 0 0 0 3 5 5 5 54 68 5 5 5 4 5 5 58 46 45 46 100 100 100 100 91 35 100 100 100 100 100 100 100 100 100 100
0 0 0 0 1 5 5 22 12 90 100 100 66 5 24 67 21 75 82 5 5 5 26 6 6 41 67 100 100 100 100 100 100 100 100 100 100 93
0 0 0 1 5 48 11 75 99 71 21 5 50 97 16 73 100 23 5 5 78 48 5 14 97 100 100 86 78 99 94 99 100 100 100 100 100 100
0 0 0 5 43 98 100 95 88 37 93 100 100 100 86 5 5 9 84 76 95 100 85 53 94 14 5 6 9 35 98 100 100 100 99 94 58 28
4 5 5 5 5 99 98 100 100 100 100 100 100 100 8 90 74 53 94 100 97 64 99 98 100 61 6 5 76 100 100 100 100 100 99 100 99 90
5 5 5 5 25 35 15 94 82 96 100 100 91 64 99 50 94 100 100 100 100 100 93 100 100 100 87 43 68 100 100 100 100 100 96 100 99 98
5 5 38 40 53 100 94 96 98 99 42 80 78 83 100 100 100 100 97 100 100 100 95 100 100 99 21 39 97 88 97 100 100 100 100 89 90 72
5 6 100 52 87 100 100 100 89 8 5 13 100 100 62 81 100 100 100 100 98 100 100 100 53 98 97 70 100 98 100 100 100 100 100 100 100 100
6 10 42 95 100 100 100 100 84 5 87 98 37 100 100 99 100 100 100 100 100 93 100 100 97 88 100 100 100 94 96 100 100 100 100 100 100 100
58 54 5 30 100 100 100 78 76 100 92 99 95 87 98 100 100 100 100 100 100 100 99 100 100 96 100 99 88 100 100 100 100 100 100 100 100 100
99 30 44 100 100 100 93 100 100 100 92 97 100 100 100 100 100 100 100 100 100 100 100 100 100 100 100 97 100 88 95 96 99 100 100 100 100 100
99 98 90 84 54 6 61 100 100 72 99 100 100 100 100 100 100 100 100 100 100 100 100 100 100 100 100 100 100 76 99 100 100 100 100 100 100 100
89 76 5 5 44 22 18 84 100 100 100 100 100 100 100 100 100 100 100 100 100 100 100 100 100 100 98 100 98 76 100 100 100 100 100 100 100 100
100 6 14 88 97 89 100 100 100 100 100 100 100 100 100 100 100 100 100 100 100 100 100 100 100 100 85 94 100 100 100 100 100 100 100 100 100 100
86 53 100 100 100 100 100 100 100 100 100 100 100 100 100 100 100 100 100 100 100 100 100 100 100 100 99 96 100 100 100 100 100 100 100 100 100 100
88 100 100 100 100 100 100 100 100 100 100 100 100 100 100 100 100 100 100 100 100 100 100 100 100 100 100 100 100 100 100 100 100 100 100 100 100 100
100 100 100 100 100 100 100 100 99 100 100 100 100 100 100 100 100 100 100 100 100 100 100 100 100 100 100 100 98 100 100 100 100 100 100 100 100 100
100 100 100 100 100 100 100 100 100 100 100 100 100 100 100 100 100 100 100 100 100 100 100 100 100 100 100 100 100 98 100 100 100 100 100 100 100 100
100 100 100 100 100 100 100 100 100 100 99 100 100 100 100 100 100 100 100 100 100 100 100 100 100 100 100 100 100 100 100 100 100 100 100 100 100 100
100 100 100 100 100 100 100 100 100 100 100 100 100 100 100 100 100 100 100 100 100 100 100 100 100 100 100 100 100 100 100 100 100 100 100 100 100 100

GFSNE_prec_cloud_030.txt.gz
Cloud_Cover
5 5 5 5 5 3 0 0 2 5 2 1 5 2 2 0 0 3 4 5 68 97 98 72 91 87 100 100 100 100 100 100 99 80 100 89 94 100
5 5 5 5 1 0 0 0 0 5 15 4 4 4 5 5 5 5 5 69 15 5 78 100 100 100 100 100 100 100 100 100 100 100 100 100 100 100
5 5 4 0 0 0 0 0 4 5 10 5 2 4 5 5 5 61 99 53 50 39 100 97 100 100 100 100 100 100 100 100 100 100 100 100 100 100
5 0 1 0 0 0 0 5 5 5 99 96 5 5 5 4 5 16 91 100 50 5 31 100 100 100 100 100 100 100 100 100 100 100 100 100 100 100
4 5 5 1 0 0 5 5 5 78 95 84 10 5 10 5 20 100 98 5 5 3 5 26 100 100 100 100 100 100 100 100 100 100 100 100 100 100
4 5 0 2 0 17 76 54 100 71 44 91 90 92 24 54 93 91 5 5 4 3 12 100 98 100 100 100 100 100 78 93 100 100 100 100 100 100
0 0 5 5 5 99 100 100 97 96 100 99 70 74 98 13 18 5 5 5 29 97 70 5 72 65 42 82 36 16 96 100 100 100 100 100 100 90
4 5 3 5 18 100 99 100 100 100 43 87 100 98 33 66 26 89 100 100 96 54 87 100 100 62 7 5 68 100 100 100 100 100 100 100 100 100
4 1 5 5 23 8 5 75 7 81 100 96 58 22 97 70 100 100 100 100 100 83 96 97 77 100 92 94 94 100 100 100 100 100 100 100 100 100
0 5 61 8 5 100 88 72 100 24 5 5 97 97 100 100 100 100 100 100 93 80 100 100 14 59 14 6 16 43 100 100 100 100 100 100 100 100
5 70 70 39 47 100 100 60 79 7 2 13 98 94 100 92 100 100 100 100 100 100 100 100 97 91 93 66 36 61 62 100 100 100 100 100 100 99
22 68 79 84 100 100 100 98 42 4 95 98 100 100 100 100 100 100 100 100 100 100 100 100 100 99 100 100 98 100 100 100 100 100 100 100 100 100
16 59 5 49 100 100 100 61 54 100 88 99 100 100 100 100 97 100 100 100 100 100 95 100 100 100 100 100 100 88 62 52 93 99 100 100 100 100
87 45 73 99 100 98 65 100 100 100 90 100 100 100 100 100 100 100 100 100 100 100 100 100 100 100 100 98 96 99 98 96 99 100 100 100 100 100
85 100 100 90 7 5 64 100 100 96 100 100 100 100 100 100 100 100 100 100 100 100 100 100 100 100 100 100 100 100 99 100 100 100 100 100 100 100
90 60 5 5 5 28 38 24 100 100 100 100 100 100 100 100 100 100 100 100 100 100 100 100 100 100 99 96 100 98 100 100 100 100 100 100 100 100
100 5 5 33 82 68 92 96 100 100 100 100 100 100 100 100 100 100 100 100 100 100 100 100 97 100 88 97 100 100 100 100 100 100 100 100 100 100
72 41 99 100 100 100 100 100 100 100 100 100 100 100 100 100 100 100 100 100 100 100 100 97 98 100 99 100 100 100 100 100 100 100 100 100 100 100
90 100 100 100 100 100 100 100 100 100 100 100 100 100 100 100 100 100 100 100 100 100 100 100 100 100 100 98 100 100 100 100 100 100 100 100 100 100
100 100 100 100 100 100 100 100 100 99 100 100 100 100 100 100 100 100 100 100 100 100 100 100 100 100 100 100 100 100 100 100 100 100 100 100 100 100
100 100 100 100 100 100 100 100 100 100 100 100 99 100 100 100 100 100 100 100 100 100 100 100 100 100 100 100 100 100 100 100 100 100 100 100 100 100
100 100 100 100 100 100 100 100 100 100 100 100 100 100 100 100 100 100 100 100 100 100 100 100 100 100 95 100 100 100 100 100 100 100 100 100 100 100
100 100 100 100 100 100 100 100 100 100 100 100 100 100 100 99 90 100 100 100 100 100 100 100 100 100 86 100 100 100 100 100 100 100 100 100 100 100

GFSNE_prec_cloud_033.txt.gz
Cloud_Cover
5 5 5 5 1 0 0 0 5 5 4 0 0 3 5 5 5 5 5 5 7 97 100 100 100 100 100 100 100 100 100 100 100 100 100 100 100 100
5 5 5 0 0 0 0 0 0 5 78 4 5 5 5 5 5 5 5 5 5 42 100 100 100 100 100 100 100 100 100 100 100 100 100 100 100 100
5 5 3 0 2 4 0 0 4 5 57 5 5 5 5 3 2 5 7 90 21 65 98 100 100 100 100 100 100 100 100 100 100 100 100 100 100 100
5 5 5 5 1 0 0 5 5 5 89 98 7 5 5 0 5 54 100 100 100 100 12 14 100 100 100 100 100 100 100 100 100 100 100 100 100 100
5 4 2 0 1 3 5 5 22 95 99 96 72 25 29 80 56 100 90 89 5 3 5 11 11 100 100 100 100 100 100 100 100 100 100 100 100 100
5 0 0 0 0 6 5 67 87 52 28 93 100 98 94 96 72 46 5 5 5 5 9 16 99 100 100 99 100 100 100 100 100 100 100 100 100 100
0 0 0 2 5 67 100 56 82 86 100 96 100 100 72 5 5 5 35 46 83 75 85 86 100 79 28 22 40 54 100 100 100 100 100 100 100 100
0 0 0 0 5 16 72 100 100 100 97 100 85 61 6 5 5 94 100 100 95 98 100 22 67 80 20 5 28 100 100 100 100 100 100 100 100 100
0 0 1 5 5 5 10 56 99 98 91 74 50 20 78 48 100 100 100 100 100 99 100 100 49 76 6 5 19 94 100 100 100 100 100 100 100 100
0 3 5 5 48 100 85 100 9 5 5 5 66 90 100 100 100 100 100 100 100 100 100 100 87 100 100 99 100 94 100 100 100 100 100 100 100 100
5 92 66 87 98 100 100 84 70 5 4 15 96 77 22 66 100 100 97 100 100 100 100 100 100 97 100 100 100 100 100 100 100 100 100 100 100 100
90 6 64 82 100 100 100 95 66 6 93 97 77 78 55 98 100 100 100 100 100 100 85 100 96 96 100 100 78 98 88 64 100 100 100 100 100 100
14 24 5 46 100 100 100 66 44 100 87 100 65 92 99 75 80 100 100 100 100 100 74 100 100 97 100 94 98 71 94 96 89 90 92 100 100 100
73 9 43 100 100 87 45 99 100 98 58 98 100 100 100 99 100 100 100 100 100 100 96 100 100 100 100 100 97 98 100 98 100 100 100 100 100 100
97 100 93 70 7 5 50 100 94 57 99 100 100 100 100 100 100 100 99 99 100 100 98 100 100 99 100 100 100 92 100 100 100 100 100 100 100 100
95 44 5 5 5 15 42 43 62 100 100 100 100 100 100 100 100 100 100 100 100 100 100 100 100 100 100 100 100 100 100 100 100 100 100 100 100 100
100 5 5 16 68 78 73 87 100 100 100 100 100 100 100 100 100 100 100 99 100 100 98 100 100 100 100 100 100 100 100 100 100 100 100 100 100 100
66 25 95 100 100 100 100 100 100 100 100 100 100 100 100 100 100 100 100 100 100 88 100 84 100 100 100 100 100 100 100 100 100 100 100 100 100 100
84 100 100 100 100 100 100 100 100 100 100 100 100 100 100 100 100 100 100 100 99 100 99 100 100 100 100 77 100 100 100 100 100 100 100 100 100 100
100 100 100 100 100 100 100 100 100 100 100 100 100 100 100 100 100 100 100 100 100 100 100 100 100 100 100 100 100 100 100 100 100 100 100 100 100 100
100 100 100 100 100 100 100 100 100 100 100 100 98 100 100 100 91 99 100 93 100 100 100 100 100 100 100 100 100 100 100 100 100 100 100 100 100 100
100 100 100 100 100 100 100 100 100 100 100 100 100 100 100 100 100 99 100 100 100 100 100 100 92 100 96 100 100 100 100 100 100 100 100 100 100 100
100 100 100 100 100 100 100 100 100 100 100 100 100 100 100 99 100 100 100 100 100 100 100 100 100 100 100 100 100 100 100 100 100 100 100 100 100 100

GFSNE_prec_cloud_036.txt.gz
Cloud_Cover
5 5 5 5 5 2 0 0 3 5 1 0 0 1 3 5 5 5 5 2 28 100 89 84 99 100 100 100 100 100 100 100 100 100 100 100 100 100
5 5 5 4 0 0 1 1 4 5 55 2 5 5 5 5 5 5 5 5 5 57 100 100 100 100 100 100 100 100 100 100 100 100 100 100 100 100
5 4 0 1 1 0 4 5 4 5 53 6 5 5 5 5 5 5 60 100 5 92 84 100 100 100 100 100 100 100 100 100 100 100 100 100 100 100
5 5 5 1 0 0 0 3 5 5 99 82 5 5 5 5 9 99 85 9 5 5 89 100 100 100 100 100 100 74 100 100 100 100 100 100 100 100
5 4 0 0 0 0 5 5 19 85 92 81 50 37 5 99 80 12 5 0 2 4 6 5 100 100 100 100 100 100 100 100 100 100 100 100 100 100
5 0 0 0 0 5 57 81 100 56 13 96 94 95 94 6 4 5 5 5 8 61 54 62 98 90 90 95 100 100 100 100 100 100 100 100 100 100
0 0 0 2 5 63 100 99 100 70 99 100 100 98 40 5 5 5 82 52 92 100 40 77 16 5 41 5 5 39 96 100 100 100 100 100 100 100
0 0 0 2 5 12 48 100 100 100 100 89 60 99 14 5 44 100 100 100 98 78 100 100 81 92 73 7 38 100 100 100 100 100 100 100 100 100
0 2 5 5 5 5 8 90 100 98 22 54 21 8 88 65 100 100 100 100 100 96 100 100 15 68 90 73 100 100 100 100 100 100 100 100 100 100
68 10 5 5 5 100 87 100 29 5 5 5 62 98 100 100 100 100 100 100 100 80 100 100 59 66 88 100 100 100 100 100 100 100 100 100 100 100
5 17 29 56 86 100 100 83 56 5 2 14 96 86 26 71 99 100 90 100 100 98 94 99 93 85 100 100 100 85 97 100 100 100 100 100 100 100
19 5 6 100 100 100 100 98 39 4 77 96 5 8 5 30 86 99 100 100 100 100 92 100 95 93 100 94 94 100 75 100 100 100 100 100 100 100
16 26 25 86 100 100 100 53 37 100 81 6 63 33 68 54 32 89 100 100 100 100 75 100 100 98 100 80 100 100 97 100 100 100 96 100 100 100
81 63 74 100 100 82 32 98 100 97 7 83 98 100 100 97 96 98 98 100 100 100 92 100 99 100 100 94 100 100 100 100 100 99 100 100 100 100
84 100 99 74 5 5 48 100 92 18 99 100 100 100 100 97 93 100 58 75 84 100 96 100 100 100 100 100 100 82 100 100 100 100 100 100 100 100
75 70 5 5 5 5 8 5 5 91 100 100 100 100 100 100 100 91 100 99 100 100 100 100 100 100 100 100 100 100 100 100 88 97 100 100 100 100
100 5 5 6 36 28 16 25 86 100 100 100 100 100 99 100 96 94 100 99 100 100 100 100 100 100 100 100 100 100 100 100 100 100 100 100 100 100
59 12 84 100 100 100 100 100 100 100 100 100 100 100 100 100 100 95 100 100 100 100 100 100 95 100 100 100 100 100 100 100 100 100 100 100 100 100
33 99 100 100 100 100 100 100 100 100 100 100 100 100 100 99 100 100 100 100 100 100 100 100 100 100 100 100 100 100 100 100 100 100 100 100 100 100
100 100 100 100 100 100 100 100 100 99 100 100 100 100 100 100 100 100 100 100 100 100 100 100 100 100 100 100 100 100 100 100 100 100 100 100 100 100
100 100 100 100 100 100 100 100 100 100 100 100 100 100 100 100 87 99 100 98 100 100 100 100 100 100 100 100 100 100 100 100 100 100 100 100 100 100
100 100 100 100 100 100 100 100 100 100 100 100 100 100 100 100 100 99 99 100 88 100 100 100 100 100 43 100 100 97 100 100 100 100 100 100 100 100
100 100 100 100 100 100 100 100 100 100 100 100 100 100 100 98 94 100 100 100 100 100 100 100 100 100 66 67 99 100 100 100 100 100 96 100 100 100

GFSNE_prec_cloud_039.txt.gz
Cloud_Cover
3 0 2 0 0 0 0 0 5 2 0 0 0 1 5 37 14 5 20 36 21 67 93 100 100 100 100 100 100 100 100 100 100 100 100 100 100 100
0 5 0 0 0 0 0 0 3 5 5 0 0 5 33 17 5 67 76 85 6 66 100 100 100 100 100 100 100 100 100 100 100 100 100 100 100 100
0 0 0 0 0 0 0 0 5 5 5 4 5 5 10 5 85 100 100 99 84 35 57 84 100 100 100 100 100 100 100 100 100 100 100 100 100 100
0 0 0 0 2 0 0 1 5 5 65 54 5 13 4 67 100 100 91 8 5 5 6 100 100 100 100 100 100 100 100 100 100 100 100 100 100 100
1 0 1 1 0 0 3 15 18 87 100 100 16 5 86 95 80 11 5 5 28 61 5 99 100 100 100 100 100 100 100 100 100 100 100 100 100 100
5 5 0 0 0 7 84 100 100 99 76 96 62 100 76 5 5 8 13 5 86 86 8 94 91 92 100 100 100 100 100 100 100 100 100 100 100 100
5 4 2 5 5 69 100 100 99 94 97 98 100 10 5 5 7 8 99 92 84 100 6 52 70 5 5 14 62 100 100 100 100 100 100 100 100 100
5 5 5 0 5 88 84 100 100 100 100 100 61 86 14 90 12 100 100 100 100 71 100 100 54 38 5 5 33 100 100 100 100 100 100 100 100 100
5 5 5 5 5 5 19 95 92 100 73 63 80 57 92 15 100 100 98 100 100 94 98 99 5 24 5 44 100 100 100 100 100 100 100 100 100 100
5 3 5 5 5 100 98 92 65 5 57 69 95 78 100 100 100 99 94 100 100 50 94 99 15 82 98 100 100 100 91 100 100 100 100 100 100 100
4 5 5 89 100 100 100 61 99 70 3 12 91 97 33 42 98 100 81 100 100 97 8 100 85 100 93 100 98 61 70 100 100 100 100 100 100 100
69 76 39 100 100 100 100 96 90 5 71 100 5 5 5 8 96 99 100 100 100 100 33 100 95 98 96 73 66 70 89 100 100 100 100 100 100 100
72 60 72 86 100 100 100 87 76 100 94 8 8 25 73 99 95 86 99 100 100 100 71 100 97 100 100 85 100 77 67 50 89 85 100 100 100 100
94 70 21 100 96 85 29 87 100 100 35 94 98 97 100 97 96 92 98 99 100 100 75 100 98 100 100 95 98 12 100 100 90 98 100 100 100 100
56 90 98 69 5 5 18 97 95 82 100 100 100 100 100 100 100 100 92 98 100 98 100 89 100 97 100 100 100 86 100 91 87 100 100 100 100 100
45 85 8 5 5 5 5 8 73 99 100 100 100 100 100 100 100 100 100 100 100 40 100 96 100 100 100 95 100 100 100 100 100 100 100 100 100 100
100 36 5 6 26 26 52 68 99 99 99 100 100 100 100 100 99 100 100 100 100 97 96 100 100 97 98 78 100 100 100 100 100 100 100 100 100 100
78 5 39 93 99 99 100 99 99 100 100 100 100 100 100 100 100 95 99 100 100 100 100 100 99 100 100 100 100 100 100 100 100 100 100 100 100 89
14 87 100 100 100 100 100 100 100 100 100 100 100 100 100 100 100 100 100 100 100 100 91 100 100 100 100 98 100 100 100 100 100 100 100 100 100 100
95 100 100 100 100 100 100 100 100 100 100 100 100 100 100 100 100 100 99 100 100 98 89 100 100 100 100 100 100 82 100 100 100 100 100 100 100 100
100 100 100 100 100 100 100 100 100 100 100 100 100 100 100 100 99 100 100 96 100 96 100 100 100 79 100 92 100 100 100 100 100 100 100 100 100 100
100 100 100 100 100 100 100 100 100 100 100 100 100 100 100 100 100 100 100 100 98 99 100 100 100 65 97 99 94 100 96 85 100 100 100 100 100 100
100 100 100 100 100 100 100 100 100 100 100 100 100 100 100 100 100 100 100 100 100 100 100 100 100 91 100 100 100 100 100 99 100 100 99 100 100 100

GFSNE_prec_cloud_042.txt.gz
Cloud_Cover
18 26 5 5 5 5 0 0 0 0 0 0 0 0 0 3 5 5 13 70 52 83 100 100 100 100 100 100 100 100 100 100 100 100 100 100 100 100
18 5 5 5 4 0 0 0 0 0 0 0 0 1 5 10 32 70 82 59 83 100 100 100 100 100 100 100 100 100 100 100 100 100 100 100 100 100
5 5 5 5 3 0 0 0 0 0 0 0 3 5 57 96 70 100 100 71 5 12 5 94 100 100 100 100 100 100 100 100 100 100 100 100 100 100
5 5 2 5 0 0 0 0 0 5 51 5 12 41 82 93 100 100 100 8 5 17 41 98 100 100 100 100 100 100 100 100 100 100 100 100 100 100
5 4 1 2 0 0 0 5 34 78 96 100 49 30 77 97 100 56 44 20 96 97 85 99 97 84 100 100 100 100 100 100 100 100 100 100 100 100
2 5 1 0 0 5 5 43 92 100 98 98 29 50 87 61 18 19 88 35 100 96 29 100 79 92 91 83 78 99 100 100 100 100 100 100 100 100
5 0 2 1 5 6 82 99 100 99 92 77 97 100 17 5 30 45 93 96 90 100 14 86 7 5 5 6 46 92 100 100 100 100 100 100 100 100
5 5 5 5 17 78 100 100 100 100 98 100 97 54 90 98 96 100 98 100 100 76 100 100 6 5 5 5 10 100 100 100 100 100 100 100 100 100
5 4 5 5 80 96 100 100 100 100 100 100 100 100 99 100 100 90 92 86 100 22 96 100 5 18 5 6 42 94 94 100 100 100 100 100 100 100
2 5 34 72 91 100 100 77 100 88 100 100 98 100 100 100 100 100 99 87 100 96 98 100 6 34 6 60 68 92 93 100 100 100 100 100 100 100
5 44 79 100 100 100 99 67 99 99 88 86 98 100 100 98 100 100 84 100 90 96 5 96 92 99 81 91 100 75 5 82 100 100 100 100 100 100
10 54 80 100 100 100 100 100 99 84 44 51 100 81 96 93 100 100 100 100 100 100 29 100 96 97 100 65 5 5 86 75 92 96 100 100 100 100
63 71 99 100 100 100 100 96 98 100 99 100 100 98 100 100 96 99 100 100 100 100 19 100 100 100 100 100 45 76 10 18 87 99 100 100 100 100
94 100 94 100 86 73 35 47 100 100 100 98 98 97 96 90 86 93 90 100 100 100 79 99 99 99 100 95 92 62 75 99 86 99 98 97 100 100
100 100 100 70 29 5 10 99 97 99 100 100 100 100 93 95 100 99 93 100 99 97 76 88 100 100 100 100 99 93 100 76 74 100 100 100 100 100
100 88 51 32 5 5 12 40 96 100 100 100 100 100 100 100 100 100 100 100 100 67 13 68 97 100 100 93 100 100 95 100 99 100 100 100 100 100
100 48 5 5 25 70 96 98 98 100 100 100 100 100 100 100 100 100 100 100 100 100 92 55 100 100 99 99 100 92 96 100 100 100 100 100 100 100
68 5 31 86 98 96 99 99 96 100 100 100 100 100 100 100 100 83 99 100 100 100 100 83 90 100 100 100 88 95 98 100 100 100 100 100 100 100
14 91 100 100 100 100 100 100 100 100 100 100 100 100 100 99 100 100 100 100 100 92 100 100 100 100 98 100 100 100 100 100 100 100 100 100 100 100
100 100 100 100 100 100 100 100 100 100 100 100 100 100 100 100 100 100 100 100 100 90 99 90 100 100 100 100 100 98 100 100 100 100 100 100 100 100
100 100 100 100 100 100 100 100 100 100 100 100 100 100 100 100 99 100 100 98 100 100 100 100 100 95 76 100 96 100 100 100 100 100 100 100 100 100
100 100 100 100 100 100 100 100 100 100 100 100 100 100 100 100 100 100 100 100 96 100 100 100 98 71 99 100 100 94 100 100 100 100 100 100 100 100
100 100 100 100 100 100 100 100 100 100 100 100 100 100 100 100 100 100 100 100 100 100 100 100 99 28 91 99 100 100 100 100 100 99 100 100 100 100

GFSNE_prec_cloud_045.txt.gz
Cloud_Cover
8 5 5 5 5 5 5 5 4 3 5 4 0 0 0 0 0 4 0 2 6 84 86 100 100 100 100 100 100 100 100 100 100 100 100 100 100 100
40 5 5 5 5 5 5 5 5 0 0 0 0 0 0 3 0 5 5 27 5 23 91 96 94 100 100 100 100 100 100 100 100 100 100 100 100 100
5 21 5 5 5 5 0 1 0 0 0 0 0 4 5 5 5 5 5 5 4 7 5 77 100 100 100 100 100 100 100 100 100 100 100 100 100 100
13 5 5 5 5 0 0 0 0 0 4 5 5 5 5 5 9 85 43 5 1 4 64 86 100 100 100 100 100 100 100 100 100 100 100 100 100 100
5 5 4 0 0 0 0 0 2 5 5 5 5 5 5 87 78 68 3 5 5 5 18 15 95 25 100 100 100 100 100 100 100 100 100 100 100 100
5 2 1 5 0 0 2 5 5 5 39 45 5 5 62 94 30 5 22 5 5 5 5 5 32 11 50 6 42 77 100 100 100 100 100 100 100 100
5 4 5 3 2 4 34 18 54 72 38 88 98 100 93 5 35 25 38 72 5 52 53 4 22 5 5 5 5 34 100 100 100 100 100 100 100 100
5 5 5 3 0 6 66 96 100 100 98 100 100 100 60 5 5 61 17 99 97 58 100 88 5 5 5 5 7 97 100 100 100 100 100 100 100 100
5 4 0 4 5 5 54 96 96 88 100 100 100 99 79 9 52 17 100 97 98 45 74 46 5 5 5 5 5 66 81 65 87 100 100 100 100 100
0 0 5 5 9 80 70 58 100 94 90 99 100 76 5 84 100 100 97 34 21 37 97 99 8 5 6 5 47 65 100 98 99 100 100 100 100 100
5 0 5 26 51 99 100 72 76 10 15 67 43 58 100 100 99 100 49 90 90 52 54 99 70 69 58 5 89 96 64 17 13 85 100 100 100 100
1 4 5 63 97 100 100 96 8 5 5 23 5 6 45 5 99 100 100 100 100 100 5 100 95 99 92 91 100 100 6 5 38 94 92 100 100 99
5 5 5 87 100 100 100 54 29 100 82 63 5 5 5 56 96 99 100 100 100 100 22 100 100 95 100 87 100 89 5 17 12 68 100 100 100 100
34 22 40 100 100 83 64 69 100 100 30 79 62 66 98 100 93 100 99 100 100 100 95 100 100 100 100 94 100 59 74 30 97 99 76 88 100 100
48 90 100 82 64 6 17 99 99 36 79 53 90 79 77 66 70 81 96 97 100 75 100 95 100 99 100 100 100 100 100 98 98 99 95 98 100 100
26 21 67 31 5 5 14 5 5 41 100 94 81 77 89 100 99 100 100 95 100 46 24 100 100 100 100 98 100 100 100 100 86 100 100 100 100 100
100 11 5 5 5 5 5 5 5 64 76 84 100 98 98 100 100 100 100 100 100 100 96 77 92 100 98 100 100 77 84 99 100 100 100 100 100 100
60 5 5 5 5 7 74 91 100 100 100 100 100 100 100 100 100 97 99 100 100 100 100 100 100 92 100 100 100 97 55 92 94 100 100 100 100 100
5 5 38 60 80 99 95 99 99 100 100 100 100 100 100 100 100 100 100 100 100 100 93 100 100 100 100 100 100 100 100 88 100 100 100 100 100 100
57 75 69 60 86 100 96 100 100 100 100 100 100 100 100 100 100 100 100 100 100 90 100 100 100 100 100 100 100 100 100 100 100 100 100 100 100 100
70 24 6 74 95 82 100 100 100 100 100 100 100 100 100 100 89 100 100 98 100 100 100 95 100 97 96 100 100 98 100 100 100 100 100 100 100 100
55 80 68 83 89 100 100 100 100 100 100 100 100 100 100 100 100 100 100 100 98 97 100 100 93 75 100 100 100 100 100 88 100 100 100 100 100 100
89 80 76 98 100 100 100 100 100 100 100 100 100 100 100 100 100 100 100 100 100 100 100 100 92 82 100 100 100 100 100 99 75 100 100 100 100 100

GFSNE_prec_cloud_048.txt.gz
Cloud_Cover
100 35 15 5 5 5 5 5 5 5 11 21 5 5 0 0 0 0 0 0 5 5 23 70 76 100 100 100 100 100 100 100 100 100 100 100 100 100
100 49 23 5 5 5 5 5 5 0 0 0 0 0 0 1 0 0 0 3 1 7 11 75 99 100 100 100 100 100 100 100 100 100 100 100 100 100
56 53 26 29 5 5 5 5 4 0 0 0 0 4 5 5 3 5 0 4 5 5 12 100 100 100 100 100 100 100 100 100 100 100 100 100 100 100
49 44 32 5 5 5 5 2 0 0 0 5 5 5 5 3 2 5 5 5 5 4 85 84 100 100 100 100 100 100 100 100 100 100 100 100 100 100
68 42 5 5 5 5 5 0 0 0 3 5 5 5 5 5 5 5 5 0 5 4 5 5 10 7 95 100 100 99 100 100 100 100 100 100 100 100
100 75 19 5 5 5 5 2 5 5 5 5 17 36 89 81 19 49 5 5 4 4 2 4 59 5 5 5 5 9 93 100 100 100 100 100 100 100
100 97 54 6 5 5 5 5 19 72 51 83 97 90 100 98 85 57 34 5 4 5 95 5 5 5 5 5 5 5 93 100 100 100 100 100 100 100
100 100 60 6 5 5 5 37 86 99 100 100 93 100 95 8 100 96 5 13 94 40 99 16 5 5 5 5 5 78 94 100 100 100 100 100 100 100
100 88 32 5 5 4 5 47 29 36 65 99 56 34 59 22 100 66 40 100 96 73 95 81 5 5 5 5 10 86 66 66 86 100 100 100 100 100
100 78 6 5 5 22 9 70 70 5 5 55 100 99 100 94 100 100 99 94 22 46 91 100 5 23 5 5 5 5 5 37 94 93 100 100 100 100
14 5 4 4 5 78 92 76 5 5 5 5 60 98 100 96 100 100 53 98 84 87 54 100 66 78 52 5 2 5 98 91 75 78 100 100 100 100
5 5 4 22 79 100 100 84 87 5 5 31 5 4 5 5 5 34 93 100 100 100 8 94 95 100 92 5 2 93 100 100 56 5 74 78 100 100
5 5 5 50 100 100 100 83 32 98 92 9 5 5 5 5 5 5 89 100 100 99 72 100 100 99 100 77 5 78 70 68 12 5 5 42 44 86
5 5 5 68 100 77 66 27 99 100 16 5 5 5 71 80 66 73 51 37 50 97 85 100 99 100 100 100 97 63 98 46 5 73 22 8 100 100
5 46 99 89 34 26 5 75 83 5 5 33 87 91 70 67 85 95 28 67 70 74 92 100 100 99 100 100 99 93 95 94 62 33 55 61 100 100
11 79 22 5 4 4 4 5 5 5 95 83 81 96 99 100 94 89 100 94 100 15 55 100 100 100 100 96 100 97 86 100 100 77 100 99 100 100
98 5 3 5 4 5 5 5 5 9 90 82 100 100 100 100 91 85 100 100 100 99 66 7 98 99 87 95 100 100 100 100 82 77 99 98 95 98
38 5 5 5 5 5 5 5 6 78 99 100 100 100 100 100 100 98 98 100 100 100 100 92 97 94 59 100 100 100 69 66 18 95 100 100 100 100
5 5 5 5 5 5 5 48 99 98 100 100 100 100 100 100 100 100 100 100 97 100 97 98 100 100 100 100 100 100 100 84 94 96 100 100 100 100
5 5 5 5 5 42 79 100 99 100 100 100 100 100 100 100 99 100 100 100 100 92 95 75 100 100 100 100 100 100 100 100 100 97 100 100 100 100
5 5 5 5 24 79 100 100 100 100 100 100 100 100 100 100 91 99 100 98 100 100 100 100 100 100 99 100 100 76 100 100 99 100 100 100 100 100
5 5 5 54 84 99 100 100 100 100 100 100 100 100 100 100 100 100 100 100 100 100 100 100 100 100 99 100 96 82 100 65 98 100 100 100 100 100
34 68 91 100 99 100 100 100 100 100 100 100 100 100 100 100 100 100 100 100 100 100 100 100 100 100 98 100 100 100 82 60 100 100 100 100 100 100

GFSNE_prec_cloud_051.txt.gz
Cloud_Cover
100 74 100 100 100 100 100 100 30 75 100 100 78 24 5 2 0 0 0 0 5 5 12 86 100 99 100 100 100 100 100 100 100 100 100 100 100 99
73 99 100 100 78 89 91 91 25 5 15 5 8 6 5 4 0 0 0 0 1 5 56 91 98 100 100 100 100 100 100 100 100 100 100 100 91 100
96 100 90 100 100 100 100 97 76 7 5 9 4 0 0 0 0 0 0 0 2 5 5 44 100 100 100 98 100 100 100 100 100 100 100 100 100 100
94 83 100 98 100 91 97 100 96 42 5 5 4 1 4 5 5 5 5 5 5 2 5 95 39 100 99 100 100 100 100 100 100 100 100 100 100 100
81 86 70 80 83 42 38 35 41 5 5 5 5 5 5 5 5 5 5 5 5 5 5 5 5 24 100 100 100 100 100 99 100 100 100 100 100 100
90 73 94 72 82 19 5 5 5 5 5 5 32 5 13 32 13 74 12 5 5 5 5 5 37 8 11 5 18 7 27 100 100 100 100 100 100 100
98 82 79 100 88 5 14 5 5 5 6 91 82 51 88 94 80 8 58 5 5 5 29 46 5 5 5 5 5 5 79 99 100 100 100 100 100 100
100 99 100 100 96 56 5 5 41 64 100 100 99 98 91 33 5 79 5 5 82 5 99 84 6 5 5 5 9 97 93 99 100 100 100 100 100 100
100 100 100 100 99 83 56 5 38 46 92 73 16 8 72 25 10 20 60 100 98 15 76 99 5 5 5 5 5 16 98 100 100 100 100 100 100 100
100 100 100 100 100 72 22 99 88 19 5 29 75 87 73 85 100 100 96 91 12 5 9 99 58 47 5 5 5 5 5 82 100 100 99 100 100 100
100 100 100 61 5 23 98 75 85 5 5 5 11 82 96 68 65 99 12 90 86 36 5 96 11 6 67 5 3 2 5 13 5 81 99 100 100 100
99 38 5 5 57 92 100 100 85 17 7 29 5 3 1 3 5 5 75 100 100 98 29 93 72 95 100 5 5 5 2 5 5 5 25 83 100 100
5 5 12 8 98 100 100 79 18 97 68 6 4 0 2 5 5 5 58 100 100 99 69 100 100 100 100 72 30 5 5 4 5 26 22 8 50 100
15 10 15 93 100 88 52 21 86 91 6 5 5 5 35 32 5 5 42 86 85 95 88 100 98 98 100 96 98 5 5 5 5 5 59 38 87 97
14 81 100 100 11 4 4 8 17 5 5 5 73 71 61 76 78 92 9 71 68 93 83 100 92 98 100 100 100 88 91 23 21 18 94 99 100 100
28 99 25 3 4 4 2 4 5 5 76 89 87 81 99 98 100 97 100 100 100 88 100 57 66 83 100 100 100 94 88 100 51 72 79 96 95 100
83 5 0 2 5 5 5 5 5 8 76 86 100 100 99 100 100 90 100 100 100 97 67 6 18 58 83 99 100 86 87 79 75 94 93 95 100 99
4 3 5 5 5 5 5 5 21 85 100 100 100 100 100 100 100 98 100 100 100 100 100 74 82 96 78 100 99 97 80 100 98 78 100 100 100 71
5 5 5 5 5 5 43 77 100 97 100 100 100 100 100 100 100 100 99 100 100 100 82 87 100 100 100 100 100 100 100 88 95 100 92 100 100 100
5 5 5 5 33 85 99 100 100 100 100 100 100 100 100 100 99 100 99 100 99 93 96 100 100 100 100 100 100 100 100 93 100 97 92 85 100 100
5 9 5 24 91 100 100 100 100 100 100 100 98 100 100 100 90 98 100 97 100 99 100 97 79 84 100 100 100 100 100 100 100 100 100 100 100 100
5 42 61 99 100 100 100 100 100 100 100 100 100 100 100 100 100 100 100 100 95 100 100 96 89 100 100 100 99 95 87 45 99 100 100 100 100 100
18 91 100 100 97 100 100 100 100 100 100 100 100 100 100 100 100 100 100 99 100 100 99 100 100 100 100 100 100 100 100 100 100 100 100 100 100 100

GFSNE_prec_cloud_054.txt.gz
Cloud_Cover
72 100 100 34 56 5 5 5 5 20 92 100 100 100 100 100 100 90 22 6 5 5 5 5 35 93 98 100 100 100 79 100 100 100 100 100 100 100
96 100 70 100 57 31 16 5 5 5 4 5 58 82 97 99 93 72 22 5 5 5 5 39 92 98 100 100 100 100 100 100 100 100 100 100 100 100
100 100 100 88 92 66 6 5 5 5 4 5 5 5 18 5 5 5 5 5 5 4 5 69 95 100 100 100 100 100 100 100 100 100 100 100 100 100
100 100 100 99 66 69 5 5 5 5 5 4 5 5 5 5 2 0 1 5 5 5 5 91 99 85 100 100 100 100 100 100 100 100 100 100 100 100
95 100 99 77 73 14 60 5 10 35 38 6 5 5 13 24 5 5 5 5 5 5 5 5 5 29 95 100 100 100 100 99 100 97 100 100 100 100
100 100 100 67 95 82 67 93 68 96 93 42 66 93 15 5 5 5 20 5 5 5 5 5 28 24 5 18 20 5 5 53 99 98 100 100 100 100
100 100 91 72 76 83 57 69 78 100 100 100 100 23 18 25 5 5 24 5 5 5 5 93 5 5 5 5 5 5 41 96 100 100 100 100 100 100
95 96 68 50 38 58 54 91 100 100 100 100 88 64 13 5 5 16 65 79 93 7 5 34 5 5 5 5 5 81 100 100 100 100 100 100 100 100
95 23 62 62 69 77 100 100 100 100 85 93 96 15 5 5 45 76 82 100 100 16 9 96 5 5 5 5 5 5 84 99 100 100 100 100 100 100
43 57 69 81 100 100 100 100 41 21 40 8 5 38 82 90 100 100 87 70 16 5 5 99 5 5 5 5 5 5 5 5 94 99 100 100 100 100
88 96 100 100 100 94 89 99 94 18 34 5 6 76 80 63 33 87 12 90 92 80 5 80 11 5 5 5 5 5 5 68 19 19 100 100 100 100
89 34 15 5 13 96 100 100 73 19 15 62 5 4 0 0 5 5 25 100 100 100 5 65 65 47 92 5 35 14 4 3 5 27 79 99 100 100
15 5 7 40 99 100 99 67 6 88 85 6 2 0 2 5 5 5 7 100 100 100 10 100 100 93 100 85 40 6 5 5 5 5 5 51 90 100
18 26 87 100 93 42 22 5 85 91 6 5 5 5 21 5 5 30 97 100 100 91 72 100 100 98 100 98 100 5 5 5 5 5 5 15 63 42
5 80 76 72 9 3 4 38 16 5 5 5 72 78 68 86 75 100 100 100 77 94 93 83 92 99 100 100 100 98 97 23 16 47 5 11 20 68
10 5 5 1 4 5 2 5 5 5 74 76 78 96 98 100 100 95 100 98 100 43 98 54 41 84 100 100 100 100 99 100 74 39 29 83 94 100
10 2 1 4 5 5 5 5 5 9 64 82 100 100 100 100 100 82 100 100 100 100 72 5 5 5 74 99 100 97 92 92 51 85 98 99 80 87
4 5 5 5 5 5 7 39 64 80 96 100 99 100 100 100 100 96 100 100 100 100 100 61 68 93 89 100 100 97 73 90 90 78 100 100 89 96
5 5 5 5 15 65 92 100 100 94 91 100 100 100 100 100 100 100 100 100 97 99 82 97 100 100 100 100 100 100 100 98 98 100 100 100 100 84
5 5 52 57 89 100 100 100 100 100 100 100 100 100 100 100 100 100 99 100 100 89 97 100 100 100 100 100 100 100 100 100 100 97 85 65 100 100
5 28 32 76 100 100 100 98 100 100 100 100 100 100 99 100 89 99 100 96 100 100 100 100 100 100 100 100 100 100 100 100 100 100 100 100 100 100
5 66 84 100 100 100 100 100 100 100 100 100 97 98 100 100 100 100 100 100 100 100 100 100 100 100 100 100 100 100 100 100 100 100 100 100 100 100
42 94 100 100 100 100 96 99 100 100 100 100 96 100 100 100 99 99 97 100 100 100 100 100 100 100 100 100 100 100 100 100 100 100 100 100 100 100

GFSNE_prec_cloud_060.txt.gz
Cloud_Cover
100 100 100 100 100 100 100 100 100 100 100 100 100 71 94 97 94 41 5 4 5 5 5 5 5 5 20 26 78 44 89 100 100 100 94 100 100 100
100 100 100 100 100 100 100 100 100 100 100 100 100 100 99 100 99 63 30 76 91 5 5 5 18 93 100 98 99 98 100 100 100 100 100 100 100 100
100 100 100 100 100 100 100 100 100 100 100 77 100 100 100 100 100 78 32 11 5 5 5 5 75 100 94 98 100 100 100 100 100 100 100 100 100 100
100 100 100 100 100 100 100 100 100 100 93 96 93 100 100 100 62 12 7 5 11 5 5 8 61 29 60 92 100 100 100 100 100 100 100 100 100 100
100 100 100 100 100 100 100 100 100 100 83 93 100 100 57 27 17 5 5 5 5 5 4 5 5 5 8 85 100 96 96 96 92 95 100 99 99 93
100 100 100 100 100 100 100 100 100 100 100 100 99 55 7 5 5 7 5 5 5 5 5 5 5 5 5 5 5 5 5 5 5 97 98 96 97 99
100 100 100 100 100 100 100 100 100 100 100 100 34 79 88 5 9 5 7 5 24 5 5 5 5 4 5 5 5 5 5 5 42 99 100 100 100 100
100 100 100 100 100 100 100 100 100 100 100 100 100 83 54 7 30 5 5 78 92 8 5 5 5 5 5 5 5 5 5 5 47 100 100 100 100 100
100 100 100 100 100 98 97 100 100 100 91 82 88 35 31 11 8 34 95 98 96 74 22 68 5 5 5 0 0 5 5 30 91 96 100 100 100 100
100 100 100 100 100 100 100 100 100 86 92 100 45 59 5 81 100 100 96 69 43 17 5 84 5 5 5 5 10 68 91 100 71 93 100 100 100 100
97 100 100 100 100 100 79 100 100 100 100 65 5 14 35 24 10 5 5 91 90 76 15 90 8 6 5 17 100 100 100 100 23 24 73 100 100 100
100 100 88 91 100 100 100 100 100 94 21 5 5 2 0 0 5 5 5 100 100 93 5 97 44 98 50 5 56 100 100 99 5 5 5 92 100 100
78 79 97 99 100 100 98 41 6 57 34 5 0 2 5 5 5 5 5 99 100 100 8 100 94 98 100 81 14 13 5 5 4 5 5 26 93 99
100 100 100 100 71 6 5 23 98 89 5 5 5 5 5 5 5 5 6 58 82 96 84 100 98 96 100 96 99 5 5 5 5 5 5 6 62 50
100 76 68 7 5 4 10 64 24 5 5 38 91 68 18 6 5 73 7 5 6 8 13 44 85 94 100 100 100 80 100 99 63 82 85 95 88 5
24 9 5 4 5 5 5 5 5 5 77 54 85 90 81 76 96 63 97 87 100 18 6 99 99 90 98 100 100 100 87 100 100 56 74 52 82 91
68 5 2 5 5 5 5 5 5 6 38 53 100 99 100 98 84 27 84 100 100 95 52 49 86 87 89 100 99 91 94 75 46 98 93 100 98 72
4 5 5 5 5 14 44 50 19 27 52 100 100 100 100 100 99 86 96 100 100 99 99 68 100 100 100 100 100 94 90 89 95 90 100 100 100 89
5 63 61 22 54 77 93 100 100 78 78 100 100 100 100 100 100 99 100 100 100 99 86 84 100 100 100 100 100 100 100 74 75 100 97 100 99 99
46 61 60 59 83 100 100 100 100 95 100 100 99 86 100 100 94 89 100 100 98 91 93 94 96 100 100 100 100 98 100 100 100 100 100 100 100 100
5 19 6 67 97 100 100 100 99 100 100 100 97 92 100 100 100 100 100 96 99 100 100 99 88 96 100 100 100 100 100 100 100 100 100 100 100 100
5 36 20 82 100 100 90 99 96 98 98 100 90 100 100 100 100 100 96 100 97 93 100 100 100 100 100 100 100 100 100 100 100 100 100 100 100 100
7 58 78 97 97 100 100 100 100 100 98 88 92 100 100 100 95 92 97 100 100 100 100 100 100 100 100 100 100 100 100 100 68 100 100 100 100 100

GFSNE_prec_cloud_066.txt.gz
Cloud_Cover
100 100 100 100 100 100 100 100 100 100 100 100 100 99 100 100 100 100 100 100 100 100 100 100 61 6 5 5 5 5 5 5 7 72 94 100 100 100
100 100 100 100 100 100 100 100 100 100 100 100 100 100 100 100 100 100 100 100 100 100 100 47 5 8 5 5 5 5 64 99 96 100 100 100 100 100
100 100 100 100 100 100 100 100 100 100 100 100 100 100 100 100 100 100 100 100 47 97 93 63 28 5 28 8 64 74 99 96 99 100 100 100 100 100
100 100 100 100 100 100 100 100 100 100 100 100 100 100 100 100 100 100 100 100 67 100 64 17 16 12 7 5 5 12 73 100 100 100 100 100 100 100
100 100 100 100 100 100 100 100 100 100 100 100 100 100 100 100 100 100 100 100 54 64 58 5 7 5 5 5 5 45 18 5 11 66 69 70 100 100
100 100 100 100 100 100 100 100 100 100 100 100 100 100 100 100 100 100 100 100 100 100 54 17 21 28 5 5 5 5 5 5 5 15 80 97 100 100
100 100 100 100 100 100 100 100 100 100 100 100 100 100 100 100 100 100 90 82 97 95 59 88 28 5 5 5 5 5 5 5 5 40 92 100 100 100
100 100 100 100 100 100 100 100 100 100 100 100 100 93 84 92 100 99 83 96 100 92 63 60 20 5 5 5 5 5 5 5 59 89 98 100 100 100
100 100 100 100 100 100 100 100 100 100 100 100 100 100 89 84 69 79 100 100 98 47 86 66 5 5 5 5 5 5 5 5 5 20 98 100 100 100
100 100 100 100 100 98 100 100 100 100 100 100 61 65 65 75 98 97 96 91 77 23 93 77 16 38 6 5 5 5 5 5 5 5 74 94 100 100
100 100 100 100 100 100 100 100 100 100 100 100 100 100 92 100 43 42 70 91 87 34 64 66 26 90 33 5 5 5 5 5 5 11 64 98 99 100
100 100 100 100 100 100 100 100 100 100 100 100 99 64 5 5 5 5 64 100 100 89 31 70 46 92 97 5 5 5 5 5 41 66 91 97 100 100
100 100 100 100 100 100 100 100 100 95 81 5 5 5 5 5 5 51 72 100 100 100 18 100 95 82 99 96 66 11 5 5 27 8 58 90 92 94
100 100 100 100 100 100 97 83 88 37 5 5 5 5 38 67 70 59 67 94 100 97 30 98 99 99 100 100 98 21 54 5 57 59 73 51 83 99
100 100 94 68 23 5 5 6 5 5 5 30 75 78 83 68 88 99 74 97 100 97 78 75 100 100 100 100 100 84 98 40 63 55 71 97 98 100
54 49 17 5 5 5 4 5 5 5 16 77 85 85 87 100 100 100 100 100 100 67 9 50 38 97 100 100 100 100 86 100 100 100 100 100 100 100
5 5 5 5 5 5 5 5 5 6 86 92 91 97 95 100 100 100 100 100 100 100 92 73 88 100 100 99 100 100 100 100 94 100 100 100 99 100
5 2 3 5 5 5 5 28 87 92 96 94 94 100 100 100 93 94 100 100 100 100 100 100 99 100 89 100 98 96 99 93 86 100 100 100 100 96
0 5 5 5 61 93 99 96 93 94 94 100 100 100 100 100 97 89 100 100 100 100 100 100 100 100 100 100 100 100 100 58 91 98 100 100 100 100
5 5 68 74 96 96 95 100 100 100 100 100 100 100 100 100 91 100 100 100 100 100 100 88 100 100 100 100 100 99 100 97 100 100 100 100 100 100
9 46 62 92 94 100 100 100 100 100 100 100 100 100 100 100 96 100 100 98 100 100 100 100 79 86 99 100 100 98 100 100 100 100 100 100 100 100
24 78 62 92 94 100 100 100 100 100 98 100 100 98 100 100 93 100 97 100 100 100 100 99 40 94 100 100 97 95 98 69 100 100 100 100 100 100
73 35 63 98 92 100 100 100 100 95 100 100 100 99 100 99 96 100 100 100 100 100 100 95 98 99 100 100 100 100 100 81 97 100 100 100 100 100

GFSNE_prec_cloud_069.txt.gz
Cloud_Cover
100 100 100 100 100 100 100 100 100 100 100 100 100 100 100 100 100 100 100 100 100 100 100 100 98 100 100 15 5 11 5 5 10 54 9 64 97 100
100 100 100 100 100 100 100 100 100 100 100 100 100 100 100 100 100 100 100 100 100 98 100 100 100 100 100 100 87 95 87 54 7 12 72 100 100 100
100 100 100 100 100 100 100 100 100 100 100 100 100 100 100 100 100 100 100 100 98 100 100 100 100 90 100 60 22 86 94 6 10 91 100 100 100 100
100 100 100 100 100 100 100 100 100 100 100 100 100 100 100 100 100 100 100 100 100 100 100 100 100 100 98 100 70 14 9 9 65 86 91 100 100 97
100 100 100 100 83 100 98 100 100 100 100 100 100 100 100 100 87 100 100 100 100 100 100 98 74 41 6 62 78 49 10 29 63 8 14 36 33 88
100 100 100 100 100 100 100 100 100 100 100 100 96 100 100 91 93 100 100 100 100 80 13 30 15 5 5 5 5 5 5 5 5 17 63 94 100 100
100 100 100 100 100 100 100 100 100 99 100 100 100 100 100 100 99 100 95 100 100 99 94 99 77 100 53 5 5 5 5 55 72 84 100 100 100 100
100 100 100 100 100 100 100 100 100 100 100 100 100 100 100 100 100 100 100 100 100 31 6 70 6 71 50 6 4 5 5 5 36 92 89 100 100 100
100 100 100 100 100 100 100 100 100 100 100 100 100 100 100 100 100 100 54 50 47 65 84 96 77 30 1 0 1 5 5 34 5 5 31 85 97 97
100 100 100 100 100 100 100 100 100 100 100 100 100 100 100 100 100 100 100 100 83 13 66 16 4 5 3 4 3 5 5 5 5 5 5 54 83 93
100 100 100 100 100 100 100 100 100 100 100 100 100 100 100 100 100 71 12 51 86 19 5 12 5 5 5 3 0 4 5 5 5 5 10 74 95 100
100 100 100 100 100 100 100 100 100 100 100 100 100 100 66 5 5 5 5 98 100 98 5 11 5 43 70 5 0 4 2 4 5 5 8 86 99 100
100 100 100 100 100 100 100 100 100 89 60 41 5 5 5 5 11 80 83 100 100 100 80 100 54 49 100 91 14 5 5 5 5 5 5 7 89 100
5 5 6 8 17 14 8 16 70 63 5 5 5 5 39 40 92 100 100 100 100 99 88 100 100 100 100 100 100 18 39 6 25 44 12 25 100 100
5 5 5 5 5 5 5 5 5 5 5 5 69 76 77 99 100 100 100 100 100 100 100 96 99 100 100 100 100 100 100 94 74 6 71 89 100 98
5 5 5 5 1 1 2 5 5 5 5 5 8 17 94 100 100 100 100 100 100 100 100 94 100 100 100 100 100 100 100 100 100 92 100 99 84 77
5 5 2 1 5 5 5 5 5 5 5 65 98 100 100 100 100 100 100 100 100 100 100 100 100 100 100 100 100 100 100 100 100 96 100 92 69 86
5 5 0 5 5 5 5 5 43 84 92 100 100 100 100 100 100 94 100 100 100 100 100 100 100 100 90 84 85 67 100 88 64 79 91 100 99 100
5 5 5 5 5 11 78 89 100 100 100 100 100 100 100 100 100 98 98 100 100 100 100 100 100 100 100 100 97 100 100 66 78 74 95 100 100 100
5 5 5 8 91 86 100 100 100 100 100 100 100 100 100 100 100 97 100 100 100 100 100 100 81 100 100 100 100 100 100 93 86 98 100 100 100 100
5 5 6 94 100 100 100 100 100 100 100 100 94 98 92 100 96 100 100 97 100 100 100 100 69 91 96 100 100 100 100 100 100 100 100 100 100 100
5 5 12 55 91 100 100 100 100 100 100 98 100 99 95 100 100 100 100 100 100 100 100 100 76 94 96 100 99 100 85 100 100 100 100 100 100 100
5 26 37 5 83 100 100 100 100 100 100 100 99 100 100 100 92 100 100 100 100 100 96 94 100 100 98 100 100 100 100 100 100 100 100 100 100 100

GFSNE_prec_cloud_072.txt.gz
Cloud_Cover
100 100 100 100 100 100 100 100 100 100 100 100 100 100 100 100 100 100 100 100 100 100 100 100 100 100 100 96 94 38 6 100 74 100 19 7 91 40
100 100 100 100 100 100 100 100 100 100 100 100 100 100 100 100 100 100 100 100 100 100 100 100 100 100 100 95 84 100 99 100 100 100 100 100 100 100
100 100 100 100 100 100 100 100 100 100 100 100 100 100 100 100 100 100 100 100 100 100 100 100 95 86 99 100 100 100 100 100 99 98 90 100 100 100
100 100 100 100 100 100 100 100 100 100 100 100 100 100 100 100 100 100 100 100 100 93 53 36 66 86 100 98 100 99 100 100 97 100 100 100 100 100
100 100 100 100 100 100 100 100 100 100 100 100 100 100 100 97 98 100 100 100 98 76 75 100 94 91 92 88 86 83 82 100 99 100 100 100 100 100
100 100 100 100 100 100 100 100 100 100 100 100 100 100 100 100 100 100 100 100 100 96 100 99 8 67 91 74 24 73 100 80 62 67 78 83 95 100
100 100 100 100 100 100 100 100 100 100 100 100 100 100 100 100 100 100 100 100 100 86 99 85 91 100 96 99 27 5 5 8 55 82 98 100 100 100
100 100 100 100 100 100 100 100 100 100 100 100 100 100 100 100 100 100 100 100 100 92 100 100 100 99 44 5 2 5 5 7 81 100 100 93 95 89
100 99 100 99 100 100 100 100 100 100 100 100 100 100 100 100 100 100 100 100 100 88 47 85 5 5 5 1 0 5 5 6 11 6 69 87 100 100
64 64 76 100 100 100 100 100 100 100 100 100 100 100 100 100 100 100 100 94 8 5 5 27 3 3 0 2 0 4 5 5 5 64 92 100 100 100
11 94 100 100 100 100 100 100 100 100 100 100 100 100 100 100 100 75 20 10 8 18 5 15 5 5 4 1 2 0 5 5 5 7 70 98 100 100
1 4 5 5 52 63 5 5 5 5 5 5 5 5 5 5 4 5 5 5 94 76 6 17 27 79 48 5 5 4 4 3 5 5 37 85 99 100
5 5 5 5 5 5 5 5 4 15 5 5 0 0 0 5 5 5 5 80 95 100 93 100 88 99 100 100 66 26 5 4 5 5 5 6 51 100
5 5 5 6 5 5 5 47 70 26 5 3 4 5 5 5 63 89 99 98 99 100 99 100 100 100 100 100 100 72 29 11 5 5 5 5 6 43
5 5 5 5 5 2 5 5 5 2 5 5 5 15 19 10 43 100 100 100 100 100 100 100 100 100 100 100 99 100 99 95 17 5 68 76 18 5
5 5 5 5 4 5 2 2 5 5 5 5 21 61 70 100 100 100 100 99 100 75 86 100 100 100 100 100 100 95 100 100 100 97 100 96 19 26
5 5 5 5 5 5 5 5 5 5 27 31 91 100 100 100 100 100 100 92 95 92 80 97 100 100 92 79 100 100 100 100 100 88 96 98 98 100
8 12 5 5 5 5 5 5 6 94 100 100 100 100 100 100 100 100 100 97 96 94 100 100 100 100 58 69 30 94 78 100 90 77 100 100 94 99
46 5 5 5 5 5 15 96 100 100 100 100 100 100 100 100 99 92 84 90 98 97 94 97 100 100 100 100 18 69 100 100 100 95 90 95 100 42
20 5 5 5 5 17 100 100 100 100 100 100 100 96 92 98 85 89 92 99 98 99 96 94 91 100 100 100 100 76 16 97 100 94 82 84 100 90
19 5 5 5 5 94 100 100 100 100 100 100 100 99 100 100 86 99 99 90 100 100 100 100 55 73 91 98 100 59 33 16 98 100 81 100 93 99
14 5 5 5 5 71 100 100 100 100 100 100 98 88 90 100 92 97 100 100 99 98 100 100 87 85 99 100 98 95 93 100 100 100 100 100 100 100
18 5 5 5 44 48 100 100 100 100 100 97 88 87 88 99 96 95 100 100 100 100 100 100 74 97 94 99 99 100 100 65 58 92 100 100 100 100

GFSNE_prec_cloud_075.txt.gz
Cloud_Cover
100 100 100 100 100 100 100 100 100 100 100 100 100 100 100 100 100 100 100 100 100 100 100 100 100 100 100 100 100 100 100 100 100 100 100 97 100 63
100 100 100 100 100 100 100 100 100 100 100 100 100 100 100 100 100 100 100 100 100 100 100 100 100 100 100 100 100 100 100 100 100 100 98 100 100 100
100 100 100 100 100 100 100 100 100 100 100 100 100 100 100 100 100 100 100 100 100 100 100 100 100 100 100 100 100 100 100 86 99 100 100 100 100 100
100 100 100 100 100 100 100 100 100 100 100 100 100 100 100 100 100 100 100 100 100 100 100 100 100 100 100 100 97 30 99 100 100 100 100 100 86 100
100 100 100 100 100 100 100 100 100 100 100 100 100 100 100 100 100 100 100 83 92 100 100 100 100 100 98 87 77 32 17 5 6 7 23 98 100 98
100 100 100 100 100 100 100 100 100 100 100 100 100 100 100 100 93 100 97 100 100 100 100 100 100 99 93 35 68 100 69 14 11 30 86 73 84 97
100 100 100 100 100 100 100 100 100 100 100 100 100 99 95 100 100 100 100 100 100 100 100 100 98 57 5 24 16 5 5 5 33 70 84 63 100 100
72 100 100 100 100 100 100 100 100 100 100 100 100 100 100 99 99 100 100 96 98 100 100 65 100 99 99 32 5 5 5 5 36 97 94 100 100 100
80 55 36 71 95 63 58 18 42 76 71 92 100 100 100 100 100 100 100 100 100 100 100 100 94 29 5 5 4 5 5 5 8 45 100 100 100 100
26 20 9 5 5 5 5 13 33 26 40 34 29 39 47 52 51 54 52 42 34 22 9 38 5 5 5 3 2 5 5 5 10 8 10 64 91 100
5 5 3 4 22 80 5 6 5 5 5 4 2 7 33 45 62 22 5 5 13 5 5 58 5 6 5 5 4 4 5 5 5 8 21 72 100 100
4 0 5 5 5 11 5 5 2 0 4 5 5 5 5 4 5 19 11 5 66 53 8 69 96 85 60 5 5 5 5 4 5 5 12 66 95 100
0 0 0 5 5 5 5 4 3 28 5 5 5 5 5 31 97 30 10 68 95 100 92 100 97 100 100 87 6 5 5 5 5 5 5 5 20 87
0 4 2 5 5 5 5 22 70 19 5 5 5 5 8 22 25 70 98 100 97 97 97 100 100 100 100 99 97 5 5 5 5 5 5 5 6 38
2 5 5 5 5 6 5 5 5 0 3 5 5 5 5 5 50 99 100 100 98 49 15 86 98 100 100 99 96 74 74 84 68 5 92 44 75 5
5 5 9 42 13 5 5 5 5 5 5 5 8 26 91 100 100 100 100 100 88 30 5 8 92 100 91 91 92 100 100 100 100 82 61 16 37 44
5 15 6 5 5 5 5 5 5 6 58 87 100 100 100 100 100 100 100 100 100 100 63 5 90 92 76 59 98 87 99 100 100 100 100 100 95 100
12 5 5 5 5 5 5 5 5 94 100 100 100 100 100 100 100 99 69 89 97 99 100 58 62 91 87 40 18 70 78 100 100 35 100 100 100 100
6 26 42 18 7 5 5 30 100 100 100 100 100 100 100 97 98 72 81 98 98 92 45 5 93 100 100 99 5 20 100 100 100 98 69 85 100 100
21 28 56 25 33 12 21 100 100 100 100 100 100 100 96 97 97 94 90 100 98 86 98 69 87 96 100 100 100 19 99 90 94 100 91 87 97 51
5 5 5 5 16 30 35 100 100 100 100 100 100 100 88 93 94 96 97 96 100 97 97 90 85 80 90 98 100 71 26 92 100 100 100 100 87 57
5 7 6 5 5 50 15 100 100 100 100 100 86 75 72 85 96 99 100 100 96 100 100 98 100 98 91 100 97 99 86 15 49 30 100 100 100 98
5 35 19 5 18 60 68 60 100 100 100 100 94 86 86 98 82 99 100 100 100 100 100 100 97 100 99 95 100 96 95 83 75 95 100 100 100 100

GFSNE_prec_cloud_078.txt.gz
Cloud_Cover
100 100 100 100 100 100 100 100 100 100 100 100 100 100 100 100 100 100 100 100 100 100 100 100 100 100 100 100 100 100 100 100 100 100 100 100 100 100
100 61 99 100 100 100 100 100 100 100 100 100 100 100 100 100 100 100 100 100 100 100 100 100 100 100 100 100 100 100 100 100 100 100 100 100 100 100
98 100 98 93 100 100 100 100 100 100 100 100 100 100 100 100 100 100 100 100 100 100 100 100 100 100 100 100 100 100 100 100 100 100 100 100 100 100
100 100 94 90 88 100 100 100 100 100 100 100 100 100 100 100 100 100 100 100 100 100 100 100 100 100 100 100 100 100 100 100 100 100 100 100 100 100
96 96 71 96 99 94 100 100 100 100 100 100 96 91 100 100 100 100 100 100 98 98 100 100 100 100 100 100 100 93 97 85 82 98 100 100 100 90
25 22 39 79 95 94 100 68 100 100 100 100 100 100 100 100 81 85 46 17 38 76 74 60 94 81 100 96 87 91 100 100 100 94 90 57 19 59
98 73 62 57 62 31 46 37 59 100 100 98 99 99 100 89 99 74 91 87 27 54 100 100 100 99 100 100 100 98 60 8 5 9 33 50 95 99
100 100 100 99 99 100 100 89 75 75 90 80 74 73 10 5 5 5 5 29 49 94 42 63 70 10 10 5 5 5 5 5 6 28 71 85 100 100
82 28 21 66 71 49 6 5 5 5 8 5 5 5 5 5 5 5 5 18 5 5 5 5 5 5 5 0 2 5 13 17 14 86 100 98 75 95
10 5 5 5 5 5 5 5 5 5 5 5 5 5 4 0 5 5 5 5 5 5 20 75 5 5 5 3 4 5 5 13 6 5 15 6 32 74
5 5 4 5 29 27 3 5 5 5 5 5 2 8 51 79 82 68 18 5 15 55 100 99 5 8 5 5 5 4 1 5 5 5 26 63 97 83
5 4 5 5 5 5 4 5 5 5 5 5 5 5 3 3 5 3 5 15 61 49 7 82 100 68 9 5 5 5 4 0 5 5 5 31 99 100
15 16 5 5 5 5 5 5 5 16 5 5 5 5 5 5 5 5 5 45 97 100 99 100 99 97 93 53 5 5 5 5 5 5 5 51 46 85
21 6 5 5 5 5 5 6 74 30 5 5 5 8 10 6 5 6 42 100 100 100 100 100 96 90 98 97 94 6 5 5 21 5 16 7 5 6
14 5 5 5 5 5 5 64 23 5 5 5 5 18 8 35 90 100 100 100 100 100 72 13 81 100 100 100 100 99 100 99 68 5 44 6 6 6
13 14 5 8 5 5 5 5 5 5 5 5 8 27 98 100 100 100 100 100 100 92 11 5 5 72 98 97 86 93 100 100 60 8 14 30 53 70
14 5 5 5 3 5 5 5 5 5 9 77 99 100 100 100 100 100 100 98 96 90 98 70 5 5 24 61 100 96 99 100 54 85 77 95 17 74
5 5 5 5 5 5 5 5 5 57 100 100 100 100 100 100 93 62 84 100 100 91 58 5 11 53 10 23 23 90 83 62 46 61 86 100 95 100
5 5 5 23 5 6 54 63 88 100 100 100 100 100 100 100 98 73 72 95 96 78 25 8 59 100 100 99 8 5 32 5 95 100 82 85 100 50
5 5 5 5 5 52 33 33 98 100 100 100 100 100 100 98 89 94 84 100 98 71 78 38 88 54 100 100 100 18 5 8 98 96 79 62 41 16
42 27 32 5 5 51 9 18 89 100 100 100 100 100 98 100 81 80 95 94 98 94 99 71 8 90 100 100 100 88 8 62 100 100 95 100 100 78
55 34 44 7 5 19 59 61 50 99 100 100 100 100 99 95 95 100 100 100 99 100 97 58 38 87 100 100 100 100 81 84 81 8 20 99 100 100
7 50 99 61 11 31 69 73 30 6 91 100 100 100 98 94 85 99 100 98 97 99 99 94 99 94 100 100 97 92 100 100 92 10 50 100 100 100

GFSNE_prec_cloud_081.txt.gz
Cloud_Cover
100 70 97 100 56 99 100 100 100 100 100 100 100 56 96 100 100 100 99 100 100 100 100 100 100 100 100 100 100 100 100 100 100 100 100 100 100 100
100 100 78 66 87 100 97 81 100 100 100 100 100 100 100 100 100 100 100 100 100 100 100 100 100 100 100 100 100 100 100 100 100 100 100 100 100 100
100 100 100 100 99 55 100 72 92 100 100 100 100 100 100 100 100 100 100 100 100 100 100 100 100 100 100 100 100 100 100 100 100 100 100 100 100 100
100 100 100 100 100 75 90 58 99 100 99 100 100 100 100 100 100 100 100 100 100 100 100 100 100 100 100 100 100 100 100 100 100 100 100 100 100 100
100 100 100 100 97 86 100 98 50 5 27 65 97 86 69 100 97 100 100 99 96 64 83 49 87 100 100 100 100 100 100 100 100 100 100 99 53 36
100 100 35 37 19 16 9 5 5 5 8 23 54 94 100 100 100 90 72 100 97 24 47 3 6 5 7 23 49 93 100 100 100 100 100 86 91 100
100 93 87 81 82 24 6 10 5 7 79 98 94 79 97 94 55 17 18 5 3 5 5 2 4 5 5 2 5 5 50 73 99 83 27 80 100 99
100 100 100 98 100 100 99 43 61 10 25 21 24 26 7 5 5 5 5 5 5 5 5 5 5 5 4 5 5 5 5 6 9 29 53 95 97 100
43 16 5 20 6 5 5 5 4 11 4 5 5 5 5 5 5 5 6 24 6 5 5 5 5 5 5 5 5 5 9 20 57 40 16 7 46 90
5 5 5 5 8 8 20 5 5 5 5 5 5 5 5 1 5 4 5 5 5 5 5 70 5 5 5 5 5 4 7 14 5 5 6 35 68 95
5 5 5 5 34 94 6 5 5 5 5 5 5 5 9 57 100 100 96 40 5 5 5 8 6 13 5 5 5 4 5 1 5 5 16 86 100 100
0 2 5 64 100 50 5 5 5 5 5 5 5 5 5 5 5 5 5 6 58 16 5 66 22 41 31 5 5 4 4 0 5 5 6 48 100 100
1 11 84 100 99 34 6 5 5 5 5 5 5 5 5 5 5 5 5 23 95 100 76 100 89 97 94 64 8 5 5 5 5 5 5 5 6 69
9 76 100 85 64 42 7 5 44 9 5 5 5 9 14 6 5 6 9 76 100 98 98 100 100 99 100 96 95 7 5 5 5 5 5 5 5 6
100 84 58 60 30 5 5 23 19 5 5 5 5 52 32 31 65 100 100 100 100 100 100 100 98 86 100 100 100 99 100 46 32 5 57 13 5 5
38 55 45 7 5 5 5 5 5 5 5 16 59 34 86 100 100 100 100 100 96 54 5 25 46 81 83 88 100 100 100 99 68 79 5 7 6 5
64 64 48 5 5 5 5 5 5 5 5 72 97 100 100 100 100 100 100 97 96 77 18 5 5 10 24 22 95 79 96 100 74 5 43 71 29 32
70 32 5 5 5 5 5 6 5 6 45 99 100 100 100 100 100 97 97 98 100 79 74 24 68 67 52 5 30 94 100 88 18 5 13 100 96 38
51 5 5 21 10 50 60 67 49 24 100 100 100 100 100 100 100 90 74 93 97 75 27 8 94 99 100 100 100 8 16 5 5 13 50 88 83 54
42 5 5 5 27 17 34 66 42 32 98 100 100 100 100 100 97 86 75 100 99 82 56 41 99 98 100 100 100 71 28 76 13 26 66 14 87 94
14 10 53 28 6 6 6 48 60 56 47 100 100 100 100 100 86 78 89 96 99 98 98 63 45 63 100 100 100 99 72 5 38 91 84 100 100 91
38 55 27 69 57 10 23 49 64 58 19 21 69 100 100 100 100 86 94 100 91 98 100 56 11 26 91 100 100 100 100 34 5 15 40 69 100 98
77 72 60 100 100 75 96 78 58 96 62 49 38 99 100 100 100 98 100 100 100 100 98 96 57 65 97 100 100 100 81 24 66 21 5 42 11 91

GFSNE_prec_cloud_084.txt.gz
Cloud_Cover
100 100 100 100 100 98 99 96 98 100 100 33 49 77 97 100 100 100 99 100 100 100 100 100 100 100 100 100 100 100 100 100 100 100 100 100 100 100
100 100 100 100 100 97 100 58 100 100 100 78 96 100 100 100 100 100 100 100 100 100 100 100 100 100 100 100 100 100 100 100 100 100 100 100 100 100
100 100 100 100 100 100 100 100 62 80 100 100 100 100 100 100 100 92 100 95 89 100 100 100 100 100 100 100 100 100 100 100 100 100 100 100 100 100
100 100 100 100 100 100 100 97 55 52 80 99 100 100 100 100 100 100 99 99 100 100 100 100 100 100 85 33 34 100 100 100 100 100 100 100 100 100
100 100 100 100 100 100 100 100 97 22 5 20 92 100 100 99 77 94 100 100 100 92 45 9 5 2 5 5 22 78 96 100 100 100 100 100 100 97
100 100 100 100 100 100 95 36 8 5 5 15 28 79 98 98 79 82 98 99 50 16 2 0 0 2 1 2 5 5 5 5 17 99 100 100 99 91
100 100 100 100 100 100 46 16 4 7 47 74 56 44 62 40 87 60 11 5 5 5 5 5 4 4 4 2 1 0 2 5 5 6 35 79 96 96
100 100 100 100 100 100 100 64 6 5 23 22 72 7 5 5 5 5 5 5 5 5 5 5 5 5 4 5 2 5 5 5 5 5 35 100 100 72
100 100 100 100 5 5 5 5 13 36 34 21 5 5 5 5 5 5 6 35 14 5 5 5 5 5 4 0 0 5 5 4 47 100 90 22 4 35
100 100 80 12 18 5 5 5 70 100 47 5 5 5 5 5 5 5 5 5 5 5 5 74 5 5 5 5 5 5 25 51 7 5 5 6 5 83
96 28 20 11 6 5 4 5 80 72 7 10 5 8 19 12 64 50 74 53 10 5 5 8 6 12 5 5 5 4 72 56 5 5 5 20 99 100
80 39 5 5 5 5 33 96 78 5 5 5 5 4 5 9 7 5 5 5 61 19 8 78 45 12 28 5 5 2 5 0 5 5 5 87 99 100
22 5 2 5 5 94 91 26 13 5 5 5 5 5 5 5 5 5 5 23 40 44 59 98 95 84 80 51 5 5 5 5 5 5 5 5 6 70
5 3 5 5 8 5 5 5 19 7 5 5 5 30 32 7 5 5 15 83 100 97 96 100 98 93 100 100 78 8 6 26 5 5 5 5 5 5
5 5 5 5 5 7 5 5 7 5 5 5 31 54 58 27 90 99 100 100 100 95 84 100 100 100 100 99 100 91 86 33 73 30 69 6 5 5
5 5 5 29 38 14 5 5 5 5 5 19 60 56 62 100 100 100 100 100 98 61 5 29 56 74 83 84 92 99 81 93 5 30 58 74 5 6
7 5 14 23 5 5 5 5 6 5 6 44 16 90 100 100 100 100 100 93 92 90 26 17 5 14 37 25 88 62 70 73 89 100 100 85 6 5
5 21 22 5 5 5 8 22 67 11 7 6 51 92 100 100 100 100 100 97 100 82 77 55 68 47 32 5 14 49 44 75 20 20 12 88 93 5
63 61 31 12 8 19 58 66 56 37 21 5 96 100 100 100 100 100 95 94 85 76 46 70 100 100 94 97 5 5 53 48 31 13 39 40 86 7
75 48 47 14 35 83 85 68 61 60 78 63 65 88 98 100 100 100 95 99 95 76 58 67 96 88 98 99 100 43 5 5 11 5 11 11 10 34
66 51 75 54 82 73 81 98 75 68 74 75 64 62 82 100 100 100 98 99 98 94 98 43 5 55 96 100 99 12 5 5 82 85 69 98 100 96
88 96 73 82 70 100 100 93 81 78 100 76 72 64 75 92 98 100 100 99 92 88 95 48 5 71 96 100 99 96 66 8 5 5 7 28 80 95
100 100 99 100 100 100 95 93 53 50 61 57 80 95 100 83 92 100 100 100 100 100 96 98 82 87 100 99 96 100 100 79 5 7 5 6 14 9

GFSNE_prec_cloud_087.txt.gz
Cloud_Cover
100 100 100 100 100 100 100 100 100 100 100 100 100 79 99 100 100 100 96 98 100 100 100 100 92 100 100 100 100 100 100 100 100 100 100 100 100 100
100 100 100 100 100 100 100 100 100 100 100 100 98 93 84 100 100 100 100 100 100 100 100 100 100 100 100 100 96 100 97 63 92 100 100 100 100 100
100 100 99 100 100 100 100 100 100 100 100 100 100 96 73 92 89 97 100 100 100 100 100 100 100 100 100 100 100 57 25 35 7 5 96 100 100 100
100 100 100 100 100 100 100 100 100 100 100 100 100 100 100 99 100 100 100 100 100 86 100 100 100 100 100 79 6 5 4 5 5 10 96 69 100 100
100 100 100 100 100 100 100 100 100 100 100 63 93 100 100 99 95 80 96 97 100 56 88 67 32 5 0 4 4 5 5 15 18 20 7 5 24 99
100 100 100 100 100 100 100 100 100 99 60 62 59 69 81 65 95 80 43 36 71 25 5 4 0 1 0 0 0 5 4 5 5 5 5 7 35 24
98 100 100 100 100 100 100 100 100 92 16 8 89 51 75 20 6 5 5 2 0 0 0 0 0 0 0 0 0 0 2 5 5 5 6 7 24 81
100 100 100 100 100 100 100 100 100 82 5 5 5 5 5 5 5 5 1 0 0 5 5 0 0 0 0 0 1 4 4 4 5 5 53 86 100 100
100 100 100 100 100 100 100 100 12 5 4 1 4 5 5 5 5 5 4 3 3 5 5 0 0 0 0 0 1 5 5 5 45 48 20 14 7 18
100 100 100 100 100 100 100 53 5 5 2 5 5 5 5 5 3 5 5 5 5 5 5 5 5 2 1 4 5 8 7 50 19 5 5 5 15 34
100 100 100 100 100 100 35 5 5 2 18 26 6 28 12 25 5 5 5 19 5 5 5 5 5 5 5 3 0 4 94 90 11 5 5 5 11 24
100 100 100 100 98 28 5 5 5 5 5 5 5 5 5 24 5 5 5 5 5 15 6 47 59 41 5 5 2 2 0 0 5 5 5 5 18 27
100 100 100 92 18 5 5 5 5 5 11 5 5 5 5 5 5 5 5 5 52 77 58 92 96 86 85 72 6 5 5 5 2 5 5 5 6 44
100 100 97 16 5 7 5 5 35 6 5 5 5 5 5 5 5 5 5 26 88 84 97 100 97 98 100 100 90 16 64 50 6 5 6 5 5 5
100 61 5 8 33 5 5 5 9 6 6 5 5 5 5 5 51 95 100 100 100 83 43 30 81 89 96 100 98 86 96 25 16 23 14 23 15 5
30 6 6 44 18 5 5 5 16 36 6 5 5 5 11 99 95 100 100 100 93 66 5 5 5 37 88 92 90 97 81 82 10 38 80 67 45 51
6 30 34 58 5 5 10 41 56 30 7 5 30 6 75 98 98 93 88 95 96 91 61 5 5 7 71 71 88 57 42 77 79 61 80 66 14 56
52 78 70 16 5 37 44 61 75 32 58 22 41 100 96 92 93 92 95 96 100 97 91 84 62 55 64 5 10 14 5 62 21 43 72 87 87 5
92 69 70 70 57 69 68 74 66 52 47 62 100 99 55 99 97 100 100 98 98 98 87 92 94 100 100 95 9 5 64 74 33 49 63 91 72 40
100 98 94 94 83 71 68 56 17 42 76 100 100 87 31 93 100 100 100 96 100 99 95 85 94 97 99 89 100 89 5 12 62 75 64 75 49 77
97 90 96 90 81 71 80 60 38 67 100 100 100 64 62 93 80 90 95 100 100 100 97 95 36 97 98 99 99 100 100 20 23 98 92 99 100 100
100 84 99 94 82 86 84 80 100 78 100 100 67 56 85 94 90 90 99 95 100 100 97 76 100 94 98 100 97 98 100 96 18 83 40 65 89 97
100 100 98 88 95 89 88 100 100 85 88 72 44 8 46 85 98 99 99 100 100 100 100 94 95 99 99 100 97 93 98 100 100 82 76 88 19 6

GFSNE_prec_cloud_090.txt.gz
Cloud_Cover
100 100 100 100 100 100 100 100 100 100 100 100 100 100 100 100 100 100 99 100 100 100 100 100 100 100 100 100 100 100 100 100 100 99 100 100 79 99
100 100 100 100 100 100 100 100 100 99 100 100 100 100 100 100 100 100 100 100 100 100 100 100 100 100 100 100 100 100 100 100 44 74 34 49 8 51
100 100 100 100 100 100 100 100 100 100 100 100 100 100 100 100 96 80 74 84 84 89 100 98 28 55 100 100 100 100 55 8 28 15 4 20 63 96
100 100 100 100 100 100 100 100 100 100 100 100 100 100 100 100 89 68 100 100 88 73 100 65 98 20 65 89 96 6 4 5 5 9 95 100 100 100
100 100 100 100 100 100 87 98 100 100 100 100 100 100 100 81 63 26 5 5 5 5 20 6 6 17 5 2 0 5 5 5 16 22 31 14 5 5
99 98 100 76 100 99 100 100 100 100 100 100 100 100 100 61 17 5 5 5 5 5 4 2 0 0 0 0 0 2 4 3 5 5 5 5 7 67
88 100 100 94 99 100 91 100 100 100 100 100 100 100 100 44 5 5 5 2 0 2 0 0 0 0 0 0 0 0 0 3 5 5 5 14 38 70
100 100 100 100 100 100 100 100 100 100 100 100 100 87 46 3 5 5 1 0 5 0 0 0 0 0 0 0 0 4 5 5 5 5 5 5 9 5
100 100 100 100 100 100 100 100 100 100 100 100 100 88 4 5 5 5 5 5 5 4 2 0 0 0 0 0 0 5 5 5 7 5 5 5 5 22
100 100 100 100 100 100 100 100 100 100 100 100 7 3 5 5 5 6 5 5 5 5 5 5 4 0 0 0 0 6 10 25 69 44 12 10 14 25
100 100 100 100 100 100 100 100 100 100 100 89 5 5 5 5 5 12 34 10 5 5 5 5 5 5 5 5 2 3 33 96 48 6 5 7 6 19
100 100 100 100 100 100 100 100 100 100 28 5 5 5 5 16 8 10 7 35 11 37 44 54 66 41 16 5 5 5 5 4 5 5 5 5 6 5
100 100 100 100 100 100 100 100 99 30 5 5 5 5 5 5 12 5 6 77 100 84 79 77 100 100 99 74 5 5 5 5 5 5 5 5 5 20
100 100 100 100 100 100 100 91 28 5 5 5 5 5 25 15 28 31 70 86 100 89 97 72 98 99 100 100 91 14 53 23 12 21 31 13 7 5
100 100 100 100 100 100 86 7 43 5 5 5 5 12 44 69 20 62 74 84 72 51 41 61 78 100 100 100 99 89 97 61 63 38 58 95 66 60
100 100 100 100 100 65 6 6 32 55 5 5 26 34 67 78 93 100 100 100 100 100 66 10 16 63 93 98 100 100 90 99 57 81 74 100 100 99
100 100 100 99 53 26 6 74 100 90 5 16 22 42 82 90 100 100 100 100 100 100 97 93 97 77 85 99 93 73 79 83 84 100 100 99 56 74
100 100 99 62 44 42 85 100 100 45 5 17 68 81 90 93 100 100 100 100 100 100 100 100 98 88 81 50 16 70 78 76 100 100 100 100 88 61
100 100 100 81 38 98 94 69 93 47 12 20 72 91 97 98 98 100 100 100 100 100 100 100 100 100 94 93 78 56 57 80 72 89 76 87 100 67
100 89 34 69 70 60 31 7 15 23 16 89 67 77 89 95 99 95 100 100 100 100 100 100 100 100 100 97 100 100 100 9 22 80 84 86 89 100
70 73 89 76 86 65 72 26 77 92 100 100 92 76 85 100 92 97 94 96 97 98 100 98 99 100 86 100 100 50 62 98 11 52 78 95 100 100
83 64 37 99 89 92 100 100 98 74 61 80 96 80 79 77 84 89 94 98 96 100 99 98 98 97 100 100 92 82 13 79 91 77 98 100 98 100
100 100 77 98 98 100 99 100 84 76 76 84 86 79 85 68 19 54 98 90 100 100 100 95 95 99 100 100 100 100 94 44 52 77 6 36 85 19

GFSNE_prec_cloud_093.txt.gz
Cloud_Cover
100 100 100 100 100 100 100 100 100 100 100 100 82 100 100 100 100 100 100 100 100 100 100 100 100 100 100 99 100 100 92 100 78 100 100 96 82 75
100 100 100 100 100 100 100 100 100 100 100 100 100 100 94 100 100 100 100 100 100 100 62 44 92 100 100 43 100 100 100 100 100 100 90 100 100 59
100 100 100 100 100 100 100 100 100 100 100 100 100 100 100 100 100 100 100 100 100 93 67 7 85 10 7 5 16 98 100 100 46 16 11 8 61 93
100 100 100 100 100 100 100 100 100 100 100 100 85 98 100 100 100 100 97 98 100 9 5 5 24 40 42 33 8 34 7 4 5 8 10 4 5 17
100 100 100 100 100 100 100 100 100 54 92 100 100 100 100 100 95 100 100 100 14 5 5 5 5 5 5 4 1 0 2 5 5 8 14 11 11 6
100 100 100 100 100 86 99 100 100 90 95 100 100 100 100 99 100 92 100 98 5 5 2 3 0 0 0 0 0 0 0 0 4 5 5 5 6 6
96 100 66 89 19 50 38 86 100 79 100 100 100 100 100 100 100 97 100 17 5 4 1 0 5 0 0 0 0 0 0 0 5 5 6 9 12 8
70 88 35 60 57 76 97 100 100 99 100 100 100 100 100 100 100 100 33 5 5 0 0 0 5 5 0 0 0 0 3 5 5 5 5 5 14 34
100 100 100 100 100 97 100 100 100 100 100 100 100 100 100 100 100 84 4 5 2 2 0 5 5 5 5 1 0 0 3 4 5 5 5 5 5 7
100 100 99 84 100 100 100 100 100 100 100 100 100 100 100 100 22 5 5 2 3 4 5 5 5 5 5 5 0 1 7 5 13 5 8 6 5 5
100 76 100 99 100 100 100 100 100 100 100 100 100 100 100 19 5 5 10 5 5 5 5 5 5 5 5 5 4 0 5 11 85 17 11 5 5 5
100 66 100 100 100 100 100 100 100 100 100 100 100 100 76 5 5 5 5 5 12 13 6 8 57 16 8 5 4 5 5 5 5 5 5 5 5 10
100 100 100 99 100 100 100 100 100 100 100 100 100 89 5 5 5 5 5 65 81 44 52 8 95 100 90 33 5 5 5 5 5 5 5 19 39 22
100 100 100 100 100 100 100 100 100 100 100 100 86 6 28 50 5 5 5 5 77 76 84 100 96 93 100 100 88 5 5 5 5 5 23 6 97 93
100 100 100 100 100 100 100 100 100 100 100 23 28 71 100 85 10 6 90 89 58 43 73 86 79 91 96 100 99 99 90 9 7 38 80 100 100 94
100 100 100 100 100 100 100 100 100 98 71 50 100 100 100 85 100 88 100 100 100 100 100 90 95 28 75 98 100 100 100 79 5 59 88 100 100 100
100 100 100 100 100 100 100 100 100 98 72 100 100 100 100 100 100 100 100 100 100 100 100 100 100 100 100 100 100 93 37 44 7 88 100 100 100 100
100 100 100 100 100 100 100 100 99 64 100 100 100 100 100 87 79 100 100 100 100 100 100 100 100 100 100 9 12 70 31 5 19 100 94 100 100 84
100 100 100 100 100 100 100 84 40 91 88 62 94 97 90 89 99 100 100 100 100 100 100 100 100 100 100 100 8 5 24 5 5 13 5 13 19 95
100 100 100 100 100 100 93 44 54 59 58 82 49 89 94 45 20 48 65 96 100 100 100 100 100 100 100 100 100 32 46 77 28 5 14 12 5 9
100 100 100 100 100 96 70 73 78 69 57 48 54 39 79 63 34 20 55 80 94 89 85 81 63 96 100 100 97 45 5 88 82 39 9 91 94 71
100 100 100 100 96 94 94 90 98 81 71 90 68 52 66 100 73 54 61 97 68 71 82 99 52 49 99 100 98 98 92 66 30 31 34 79 100 96
100 100 100 100 100 99 98 100 91 95 84 98 99 87 98 73 58 79 99 98 100 98 100 100 55 42 93 97 100 100 95 86 54 30 45 5 5 14

GFSNE_prec_cloud_096.txt.gz
Cloud_Cover
100 100 100 100 100 100 100 100 100 100 100 100 100 100 100 100 100 100 100 100 100 100 100 97 100 100 100 100 100 95 6 98 100 100 55 97 14 78
100 100 100 100 100 100 100 100 100 100 100 100 100 100 100 99 100 100 100 100 100 100 100 86 20 87 100 100 100 97 5 5 89 39 76 5 8 6
100 100 100 100 100 100 100 100 100 100 100 100 100 100 100 100 100 100 100 100 100 100 100 81 36 84 2 2 3 5 5 5 5 8 5 5 29 3
100 100 100 100 100 100 100 100 100 100 100 100 100 100 100 100 100 100 100 100 100 100 74 38 100 20 5 5 3 5 5 5 5 2 0 2 0 3
100 100 100 100 100 100 100 100 100 100 100 100 96 77 100 100 100 100 98 100 100 98 51 100 5 5 5 4 4 0 5 0 2 2 5 3 5 6
100 100 100 100 100 100 100 100 71 38 34 94 95 100 100 100 100 100 100 100 100 100 100 95 3 0 0 0 0 2 5 0 0 0 5 5 4 5
100 100 100 100 84 72 7 5 31 45 99 100 81 100 100 100 100 100 100 100 100 100 100 0 0 0 0 0 1 5 5 0 2 5 5 7 13 12
61 15 36 100 97 52 91 95 68 92 100 98 100 100 100 100 100 100 100 100 100 94 5 0 0 0 0 5 5 5 5 5 4 5 5 5 5 8
100 100 100 99 57 99 100 98 97 100 95 95 100 100 100 100 100 100 100 100 100 66 5 5 4 5 5 5 5 5 5 5 5 5 5 5 5 10
100 100 100 98 100 100 100 100 92 100 99 97 100 100 99 100 100 100 100 100 93 5 5 5 5 5 5 5 5 5 9 8 6 18 5 9 20 17
100 99 100 100 100 100 100 100 86 100 100 100 100 100 100 100 100 100 100 100 5 5 5 5 5 5 5 5 5 5 56 14 74 68 54 5 5 9
100 100 100 100 100 100 100 100 100 100 100 100 100 100 100 100 94 100 95 18 9 7 5 5 5 10 32 5 5 22 88 28 5 5 5 16 10 5
100 100 88 100 100 100 100 100 100 100 100 100 100 100 100 100 100 81 5 5 34 70 44 22 11 37 62 29 6 50 60 5 5 5 5 5 24 66
100 100 100 100 100 100 100 100 100 100 100 100 100 100 100 100 98 16 60 92 100 100 80 99 60 36 79 85 89 12 7 5 6 6 5 5 14 24
97 100 100 100 100 100 100 100 100 100 100 100 97 100 100 100 94 27 84 100 83 67 61 100 100 78 100 100 99 94 99 16 5 38 22 16 95 100
100 100 100 100 100 100 100 100 100 100 100 100 100 100 100 93 47 92 100 100 100 98 77 100 100 100 98 59 97 100 98 64 8 5 6 94 100 100
100 100 100 100 100 100 100 100 100 100 100 100 100 100 93 24 57 99 82 100 100 100 97 99 100 100 100 100 100 100 88 53 5 5 81 95 75 51
100 100 100 100 100 100 100 100 100 100 100 100 100 96 39 5 72 26 96 100 100 100 100 100 100 100 100 57 27 81 89 61 23 5 31 12 5 5
100 100 100 100 100 100 100 100 100 100 100 99 81 61 61 45 51 49 79 93 100 100 97 100 100 100 100 97 47 36 90 73 81 19 12 17 7 5
100 100 100 100 100 100 100 100 100 100 100 84 78 90 86 100 72 62 69 56 75 76 88 95 95 90 98 99 100 33 8 14 63 14 31 5 5 6
100 100 100 100 100 100 100 100 100 100 92 78 96 83 65 50 67 64 54 62 70 60 41 13 53 62 99 100 100 99 5 5 50 98 93 99 76 48
100 100 100 100 100 100 100 100 100 100 96 94 100 87 95 97 64 68 83 41 61 61 27 37 36 61 65 90 100 93 6 5 5 5 19 25 90 91
100 100 100 100 100 100 100 100 100 99 99 100 100 100 100 100 100 98 66 61 66 85 57 52 47 58 70 100 100 98 85 5 6 65 5 5 5 5

GFSNE_prec_cloud_099.txt.gz
Cloud_Cover
100 100 100 100 100 100 100 100 100 100 100 100 100 100 100 100 100 100 100 100 100 100 100 100 100 100 100 100 100 100 100 100 38 5 5 10 5 5
100 100 100 100 100 100 100 100 100 100 100 100 100 100 100 100 100 100 100 100 100 100 100 100 100 100 100 100 100 100 100 100 5 5 5 5 24 94
100 100 100 100 100 100 100 100 100 100 100 100 100 100 100 100 100 100 100 100 100 100 100 100 100 100 50 26 96 24 27 7 5 5 5 5 18 0
100 100 100 100 100 100 100 100 100 100 100 100 100 100 100 100 100 100 100 100 100 100 100 100 100 100 39 100 42 5 4 5 5 5 0 0 0 0
100 100 100 100 100 100 100 100 100 100 100 100 100 100 100 100 100 100 100 98 100 100 100 100 100 100 100 92 5 3 0 0 0 0 0 0 2 3
100 100 100 100 100 100 100 100 100 100 100 100 100 100 100 100 100 100 46 100 100 100 100 86 100 100 100 5 2 0 0 0 3 1 2 0 0 4
100 100 100 100 100 100 100 100 100 100 98 99 100 100 100 100 73 92 36 100 100 100 100 100 100 100 100 4 0 4 0 5 5 5 5 5 5 14
100 100 100 100 100 100 75 100 100 100 100 100 100 99 87 100 76 100 97 100 100 100 100 100 100 99 5 5 4 5 5 5 5 5 5 5 5 5
100 100 100 100 100 100 61 34 100 100 100 100 100 100 78 92 100 100 100 100 100 100 100 100 100 65 5 5 5 5 5 5 5 5 5 5 5 5
100 100 100 96 82 85 79 100 93 100 100 100 100 95 100 100 100 100 100 100 100 100 100 100 91 5 5 5 5 10 5 10 5 28 5 5 8 20
100 100 100 100 100 100 100 100 100 94 100 100 99 100 100 100 100 100 100 100 100 100 100 100 45 30 5 5 12 8 5 5 86 100 100 13 10 6
100 100 100 100 100 100 100 100 100 98 100 100 100 100 100 100 100 100 100 100 100 100 100 90 98 85 90 45 62 7 5 36 7 8 25 19 36 6
100 100 100 100 100 100 100 100 100 100 100 100 100 100 100 100 100 100 100 100 100 100 84 99 80 91 48 5 9 6 47 87 6 5 5 5 7 67
100 100 100 87 100 100 100 100 100 100 100 100 100 100 100 100 100 100 100 100 100 90 73 67 99 53 81 63 13 6 61 10 12 5 5 5 5 45
100 100 93 100 100 100 100 100 100 100 100 100 100 100 100 100 100 100 100 100 94 67 78 93 71 100 94 73 49 42 72 28 15 17 8 25 5 55
100 100 100 100 100 100 100 100 100 100 100 100 100 100 100 100 100 100 100 77 79 74 59 100 100 92 94 94 74 77 42 80 44 5 17 31 6 43
100 100 100 100 100 100 100 100 100 100 100 100 100 100 100 100 100 100 100 83 79 98 93 85 100 100 99 95 100 84 94 100 36 20 84 68 5 5
100 100 100 100 100 100 100 100 100 100 100 100 100 100 100 100 100 100 84 64 77 85 92 80 98 98 84 37 37 99 100 100 48 10 77 91 13 5
100 100 100 100 100 100 100 100 100 100 100 100 100 100 100 100 100 90 95 100 88 69 44 82 94 99 98 95 6 11 74 61 82 80 62 32 43 5
100 100 100 100 100 100 100 100 100 100 100 100 100 100 100 100 100 98 84 74 88 74 60 70 90 92 94 74 69 6 28 78 95 96 15 10 5 5
100 100 100 100 100 100 100 100 100 100 100 100 100 100 100 100 100 100 100 96 92 67 37 67 96 99 95 94 100 66 8 73 82 73 18 69 84 7
100 100 100 100 100 100 100 100 100 100 100 100 100 100 100 100 100 100 100 100 98 100 98 76 98 86 100 100 100 91 34 11 60 65 18 80 99 98
100 100 100 100 100 100 100 100 100 100 100 100 100 100 100 100 100 100 100 100 100 100 100 100 94 96 84 100 100 100 82 54 100 90 5 5 5 85

GFSNE_prec_cloud_102.txt.gz
Cloud_Cover
100 100 100 100 100 100 100 100 100 100 100 100 100 100 100 100 100 100 100 100 100 100 100 100 82 98 100 100 100 100 100 53 97 37 0 1 5 5
91 100 100 100 100 100 100 100 100 100 100 100 100 100 100 100 100 100 100 100 100 100 100 100 100 66 100 100 100 100 100 100 99 14 5 5 9 100
96 99 99 100 100 100 100 100 100 100 100 100 100 100 100 100 100 100 100 100 100 100 100 100 100 92 100 100 100 55 98 100 39 5 5 5 5 6
100 100 100 100 100 100 100 100 100 100 100 100 100 100 100 100 100 100 100 100 100 100 100 100 100 100 100 100 69 97 100 100 5 5 5 2 0 0
100 100 100 100 100 100 100 100 100 100 100 100 100 100 100 100 100 100 100 100 100 100 100 100 100 100 100 96 90 100 100 68 1 0 0 0 0 2
100 100 100 100 100 100 100 100 100 100 100 100 100 100 100 100 100 100 100 100 98 99 74 96 100 100 100 97 85 100 100 6 5 0 0 2 1 2
100 100 100 100 100 100 100 100 100 100 100 100 100 100 100 100 100 100 100 100 100 100 87 100 100 100 99 100 99 100 95 5 3 5 5 5 5 5
100 58 72 100 100 100 100 100 100 100 100 98 100 100 100 100 100 100 100 100 100 100 100 100 100 100 100 85 93 100 8 5 5 5 5 5 5 5
100 100 100 100 100 100 100 100 100 100 99 100 100 100 100 100 99 89 100 100 100 100 100 100 100 100 96 70 98 74 8 5 5 5 5 7 5 5
100 100 100 100 100 100 100 100 100 100 100 92 100 100 100 100 100 100 100 100 100 100 100 100 100 100 92 78 92 52 14 5 5 14 24 5 5 5
100 100 100 100 100 100 100 100 100 100 100 100 100 100 100 100 100 100 100 100 100 100 100 100 100 97 75 33 63 10 5 5 55 100 45 88 21 8
100 100 100 100 100 100 100 100 98 100 100 100 100 100 100 100 100 100 100 100 100 100 100 100 100 100 99 60 12 5 5 5 5 9 38 19 26 34
100 100 100 100 100 100 100 100 100 100 100 100 100 100 100 100 100 100 100 100 100 100 100 100 100 67 84 67 8 7 45 5 5 5 5 5 5 13
100 100 100 100 100 100 100 100 100 100 100 100 100 100 100 100 100 100 100 100 100 100 100 100 98 100 93 74 7 7 54 9 8 5 6 5 5 8
100 100 100 100 100 100 97 100 100 100 100 100 100 100 100 100 100 100 100 100 100 100 100 100 100 81 78 83 70 85 44 47 16 70 68 5 6 6
100 100 100 99 98 100 96 93 100 100 100 100 100 100 100 100 100 100 100 100 100 100 100 100 98 94 100 100 92 87 62 55 64 61 16 34 8 15
99 100 100 97 100 100 100 100 100 100 100 100 100 100 100 100 100 100 100 100 100 100 100 100 100 100 84 73 84 27 50 86 100 38 56 74 6 5
79 100 100 100 100 100 100 100 100 100 100 100 100 100 100 100 100 100 100 100 100 100 100 100 100 100 98 82 61 70 92 100 100 50 56 89 36 5
98 100 97 100 100 100 100 100 100 100 100 100 100 100 100 100 100 100 100 100 100 100 100 100 100 100 93 82 84 93 96 64 83 88 55 30 85 30
100 99 78 81 97 100 100 100 100 100 100 100 100 100 100 100 100 100 100 100 100 100 100 100 100 100 100 88 80 94 91 79 87 82 48 22 60 65
100 100 100 96 98 95 100 100 100 100 100 100 100 100 100 100 100 100 100 100 100 100 100 86 100 100 100 100 100 89 69 100 78 98 64 96 99 100
100 100 100 100 100 100 100 100 100 100 100 100 100 100 100 100 100 100 100 100 100 95 90 88 97 100 100 100 100 100 100 56 92 98 90 91 100 100
100 100 100 100 100 100 100 100 100 100 100 100 100 100 100 100 100 100 100 100 100 100 100 100 100 100 100 100 100 100 92 59 77 65 82 100 100 100

GFSNE_prec_cloud_105.txt.gz
Cloud_Cover
100 100 100 100 100 100 100 100 100 100 100 100 100 100 100 100 100 100 100 100 100 100 100 100 100 100 74 84 48 100 99 100 100 100 90 6 20 0
100 100 100 98 100 100 100 100 100 100 100 100 100 100 100 100 100 100 100 100 100 100 100 100 100 100 77 66 100 98 79 100 83 66 22 78 10 1
99 100 100 100 100 100 100 100 100 100 100 100 100 100 100 100 100 100 100 100 100 100 100 100 100 100 56 49 100 100 100 100 54 20 69 93 26 0
100 100 100 98 100 100 100 100 100 100 100 100 100 100 100 100 100 100 100 100 100 100 100 100 100 100 23 100 99 100 100 100 86 45 100 67 4 0
100 100 100 100 100 100 100 100 100 100 100 100 100 100 100 100 100 100 100 100 100 100 100 100 100 100 100 100 85 100 100 100 65 53 90 73 5 0
5 67 80 100 99 100 100 100 100 100 100 100 100 100 100 100 100 100 100 100 100 100 100 100 100 100 100 100 100 99 100 100 100 97 100 34 5 3
0 0 0 42 100 100 100 100 100 100 100 100 100 100 100 100 100 100 100 100 100 100 100 100 100 100 100 100 100 98 99 100 100 100 83 35 5 4
0 0 23 33 94 100 100 100 100 100 100 100 100 100 100 100 100 100 100 100 100 98 100 100 100 100 100 100 100 100 100 100 47 86 48 5 5 5
98 100 100 100 100 100 100 100 100 100 100 100 100 100 100 100 100 100 100 100 100 100 100 100 100 100 100 100 100 100 100 100 84 27 5 8 5 5
54 100 100 100 100 100 100 100 100 100 100 100 100 100 100 100 100 100 100 100 100 100 100 100 100 100 100 100 100 100 100 100 96 6 18 18 5 5
98 99 100 100 100 100 100 100 100 100 100 97 100 100 100 100 100 100 100 100 100 100 100 100 100 100 100 100 100 100 100 100 62 99 96 5 5 24
100 100 100 100 100 100 100 100 100 100 100 100 82 87 100 98 100 100 100 100 100 100 100 100 100 100 100 100 100 100 100 100 11 94 98 100 58 63
77 100 100 100 100 100 100 100 100 100 100 100 100 91 98 100 100 100 100 100 100 100 100 100 100 100 100 100 92 100 100 53 21 5 5 5 5 18
39 63 100 100 100 100 100 100 100 100 100 100 100 100 98 100 100 100 100 100 100 100 100 100 100 100 100 100 100 98 51 45 13 5 5 5 9 44
38 46 78 100 100 100 100 100 100 100 100 100 100 100 100 100 100 100 100 100 100 100 100 100 100 100 97 77 62 69 56 38 15 69 76 22 47 60
51 45 84 80 100 100 100 100 100 100 100 100 100 100 100 100 100 100 100 100 100 100 100 100 100 100 99 96 99 99 80 72 34 74 69 55 17 19
80 20 75 79 94 86 100 100 100 100 100 100 100 100 100 100 100 100 100 100 100 100 100 100 100 100 100 98 88 99 91 85 72 93 78 83 12 10
87 100 69 74 84 98 89 100 100 100 100 100 100 100 100 100 100 100 100 100 100 100 100 100 100 100 100 100 98 78 77 73 98 99 91 100 71 36
96 100 98 74 82 84 100 100 100 100 100 100 100 100 100 100 100 100 100 100 100 100 100 100 100 100 100 76 66 76 76 87 85 100 100 100 100 48
99 80 97 85 95 100 100 100 100 100 100 100 100 100 100 100 100 100 100 100 100 100 100 100 100 100 100 100 60 39 92 93 100 100 100 100 100 97
90 80 85 100 100 100 99 100 100 100 100 100 100 100 100 100 100 100 100 100 100 100 100 100 100 100 100 100 100 81 59 95 100 100 100 100 100 74
94 78 80 99 100 100 100 100 100 100 100 100 100 100 100 100 100 100 100 100 100 100 100 100 100 100 100 100 100 100 93 88 80 100 100 100 100 99
100 100 73 92 79 78 100 100 100 100 100 100 100 100 100 100 100 100 100 100 100 100 100 100 100 100 100 100 100 100 97 72 75 100 100 100 100 100

GFSNE_prec_cloud_111.txt.gz
Cloud_Cover
100 100 97 99 100 94 100 98 99 100 70 100 100 100 92 100 100 100 100 100 100 100 100 100 100 100 100 100 100 100 100 100 100 100 100 100 100 51
100 100 100 100 100 100 96 100 100 100 100 91 97 70 92 94 100 100 100 100 100 100 100 100 100 99 100 100 97 100 100 100 100 100 100 100 84 61
100 100 98 88 86 99 62 71 99 100 100 100 100 100 93 100 100 100 100 100 100 100 100 100 100 100 100 100 100 100 100 100 100 100 100 100 99 100
100 100 76 88 92 51 60 72 81 96 100 100 100 100 100 100 100 100 100 100 100 100 100 100 100 100 100 100 100 100 100 100 100 100 100 100 100 100
100 45 20 16 96 100 100 92 66 74 91 100 100 100 100 100 100 100 100 100 100 100 100 100 100 100 100 100 100 100 100 100 100 100 100 100 100 100
68 15 2 0 23 40 68 100 100 100 100 100 100 100 100 100 100 100 100 100 100 100 100 96 100 100 100 100 100 100 100 100 100 100 100 100 100 100
5 4 0 0 0 7 87 100 95 81 100 100 100 100 100 100 100 100 100 100 100 100 100 100 100 100 100 100 100 100 100 100 100 100 100 100 100 100
5 5 3 0 0 0 0 4 54 85 99 100 100 100 100 100 100 100 100 100 100 100 100 100 100 100 100 100 100 100 100 100 100 100 100 100 100 100
6 8 3 1 3 0 0 0 100 100 99 100 100 100 100 100 100 100 100 100 100 100 100 100 100 99 100 100 100 100 100 100 100 100 100 100 100 100
7 20 15 90 100 71 24 29 80 100 100 100 100 100 100 100 100 100 100 100 100 100 100 100 100 100 100 100 100 100 100 100 100 100 100 100 100 100
10 5 32 100 99 98 100 69 32 100 100 100 100 100 100 100 100 100 100 100 100 100 100 100 100 100 100 100 100 100 100 100 100 100 100 100 100 100
34 18 100 77 95 98 99 74 44 99 100 100 100 100 100 100 100 100 100 100 100 100 100 100 100 100 100 100 100 100 100 100 100 100 100 100 100 100
23 100 91 5 39 92 100 96 26 100 100 100 100 100 100 100 100 100 100 100 100 100 100 100 100 100 100 100 100 100 100 100 100 100 100 100 100 100
98 100 100 86 5 7 47 85 42 98 100 100 100 100 100 100 100 96 100 100 100 99 100 100 100 100 100 100 100 100 100 100 100 100 100 100 100 100
100 100 100 40 5 5 20 10 22 52 100 100 100 100 100 100 100 86 41 100 100 99 100 100 100 100 100 100 100 100 100 100 100 100 100 100 100 100
100 100 100 97 24 6 5 5 5 27 76 98 100 96 94 84 100 100 100 99 100 100 100 100 100 100 100 100 100 100 100 100 100 100 100 100 98 100
93 93 99 100 66 19 5 5 5 6 30 93 92 81 91 78 100 99 100 100 100 100 100 100 100 100 100 100 100 100 100 100 100 100 100 99 100 100
95 88 100 100 83 28 5 5 5 37 76 22 100 91 82 97 94 92 100 100 100 100 100 100 100 100 100 100 100 100 100 100 100 100 100 100 100 100
100 100 100 100 100 62 5 5 15 84 100 100 93 100 74 97 100 100 100 100 100 100 100 100 100 100 100 100 100 100 100 100 100 100 100 100 100 100
100 100 100 100 100 100 31 5 5 49 56 34 100 100 100 71 98 100 100 100 100 100 100 100 100 100 100 100 100 100 100 100 100 100 100 100 100 26
100 100 100 100 100 47 50 14 10 35 74 78 85 93 100 100 97 87 100 100 100 100 100 100 100 100 100 100 100 96 100 100 100 100 100 100 100 100
100 100 100 100 100 100 88 57 65 68 99 93 76 86 96 86 100 100 100 100 100 100 100 98 99 100 100 100 100 100 99 100 100 100 100 100 100 100
100 100 100 100 100 100 100 100 100 59 48 91 100 60 78 92 87 100 100 100 100 100 100 100 100 100 100 100 100 100 100 97 100 100 100 100 100 100

GFSNE_prec_cloud_114.txt.gz
Cloud_Cover
100 100 100 93 100 100 100 96 100 100 100 100 94 100 59 99 89 71 92 100 100 100 100 100 100 100 100 100 100 90 100 100 100 100 100 100 100 100
100 100 100 100 100 100 100 100 100 99 100 100 100 67 69 67 71 97 96 100 100 100 100 100 100 100 100 100 100 100 100 100 100 100 100 100 100 100
100 100 100 100 100 100 100 100 100 100 100 100 100 100 73 100 90 100 100 100 100 100 100 100 100 100 86 100 100 100 100 100 100 100 100 100 100 100
100 50 100 100 100 100 92 56 100 100 100 100 100 100 82 100 100 100 100 100 100 100 100 100 100 100 100 100 100 100 100 100 100 100 100 100 100 100
99 100 100 100 76 100 100 100 100 100 100 100 100 100 100 100 100 100 100 100 100 100 100 100 100 100 100 100 100 100 100 100 100 100 100 100 100 100
100 100 100 100 100 84 100 85 100 99 100 100 100 100 100 100 100 100 100 100 100 100 100 100 100 100 100 100 100 100 100 100 100 100 100 100 100 100
100 100 100 100 100 100 95 97 100 100 100 99 100 100 100 100 100 100 100 100 100 100 100 100 100 100 99 100 100 100 100 100 100 100 100 100 100 100
100 100 100 100 100 100 100 95 15 87 100 100 100 100 100 100 100 100 100 100 100 100 100 100 100 100 100 100 100 100 100 100 100 100 100 100 100 100
100 100 100 100 100 98 78 10 11 9 26 96 100 100 100 100 100 100 100 100 100 100 100 100 100 100 100 100 100 100 100 100 100 100 100 100 100 100
100 100 100 100 100 100 28 21 58 33 5 95 100 100 100 100 100 100 100 100 100 100 100 100 100 100 100 100 100 100 100 100 100 100 100 100 100 100
100 100 100 100 100 34 56 98 42 28 5 76 100 100 100 100 100 100 100 100 100 100 100 100 100 100 98 100 100 100 100 100 100 100 100 100 100 100
100 100 100 99 91 59 96 74 53 10 5 8 100 100 100 100 100 100 100 100 100 100 100 100 100 100 100 100 100 100 100 100 100 100 100 100 100 100
82 67 96 22 22 10 98 100 100 40 5 5 59 100 100 100 100 100 100 100 100 100 100 74 100 100 100 100 100 100 100 100 100 100 100 100 100 100
100 26 11 46 81 32 42 100 98 20 5 5 8 99 100 100 100 100 100 100 100 100 100 100 100 100 100 100 100 100 100 100 100 100 100 100 100 100
100 98 45 98 100 58 9 37 29 70 5 5 5 97 100 100 100 100 93 100 98 97 84 100 99 100 100 100 100 100 100 100 100 100 100 100 100 100
89 100 100 90 100 98 35 5 9 5 5 5 5 54 94 87 79 88 72 85 77 77 86 100 100 100 100 100 100 100 100 100 100 100 100 100 100 100
98 98 98 81 100 100 65 9 5 5 5 5 5 5 57 62 10 62 70 74 87 84 100 100 100 100 100 100 100 100 100 100 100 100 100 100 100 100
95 100 88 100 100 100 84 6 5 5 5 5 5 10 22 82 100 74 84 70 70 98 98 100 98 100 100 100 100 100 100 100 100 100 100 100 100 100
100 100 99 100 100 100 100 49 5 5 69 13 18 26 43 54 100 100 69 100 75 99 100 100 100 100 100 100 100 100 100 100 100 100 100 100 98 100
100 100 100 100 100 100 100 100 24 7 5 5 15 25 29 49 72 74 100 100 100 90 100 100 99 91 100 100 100 100 100 100 100 100 100 100 100 100
100 100 100 100 100 100 100 82 63 37 71 74 24 30 29 46 39 48 72 100 100 100 100 99 89 100 100 100 99 100 100 100 100 100 100 100 100 100
100 100 100 100 100 100 100 100 99 95 90 91 75 64 52 29 64 79 77 88 97 100 100 100 100 100 100 100 100 100 100 100 100 100 100 100 100 100
100 100 100 100 100 100 100 100 100 100 100 100 100 76 78 65 69 60 67 82 87 100 100 100 100 100 100 100 100 100 100 100 100 100 100 100 100 100

GFSNE_prec_cloud_117.txt.gz
Cloud_Cover
100 100 100 100 100 91 100 100 100 100 100 100 100 100 99 98 100 89 99 100 100 100 100 91 100 99 100 98 95 100 100 100 100 100 100 100 100 100
100 100 100 100 100 100 100 100 100 100 100 88 87 60 70 5 79 86 90 100 100 100 100 100 100 100 100 100 100 100 100 100 100 100 100 100 100 100
100 100 95 98 100 100 100 100 100 100 100 92 100 79 64 69 82 74 97 100 100 100 100 100 100 100 100 100 100 100 100 100 100 100 100 100 100 100
100 80 100 100 100 100 100 100 100 100 100 100 100 100 84 100 100 100 100 100 100 100 100 100 100 100 100 63 100 100 100 100 100 100 100 100 100 100
89 100 100 100 100 100 100 94 99 100 100 100 100 100 100 99 100 100 100 100 100 100 100 100 100 100 96 98 100 100 100 100 100 100 100 100 100 100
100 100 100 100 81 95 65 92 80 82 93 100 100 86 83 98 100 100 100 100 100 100 100 100 100 100 100 99 100 100 100 100 100 100 100 100 100 100
100 100 100 100 98 100 91 100 99 99 100 96 98 100 100 100 100 100 100 100 100 100 100 100 100 100 100 100 96 94 100 100 100 100 100 100 100 100
100 100 100 100 100 100 99 100 100 100 100 100 98 97 100 100 100 100 100 100 100 100 100 100 100 100 100 100 100 100 100 100 100 100 100 100 100 100
100 100 100 100 100 100 100 100 100 100 85 99 93 91 100 100 100 100 100 100 100 100 100 100 100 100 100 100 100 100 100 100 100 100 100 100 100 100
100 100 100 100 100 100 100 100 59 98 76 63 32 12 40 100 100 100 100 100 100 100 100 100 100 100 100 100 100 100 88 96 100 100 100 100 100 100
100 100 100 100 100 100 100 100 55 99 84 100 84 50 59 100 100 100 100 100 100 100 100 100 100 100 100 100 100 100 100 100 100 100 100 100 100 100
100 100 100 100 100 100 100 100 70 100 100 88 73 8 12 99 100 100 100 100 100 100 100 100 100 100 100 99 100 100 100 100 100 100 100 100 100 100
100 100 100 100 100 100 100 100 100 97 92 63 10 5 5 88 100 100 100 100 100 100 100 100 100 100 100 87 86 98 100 100 100 100 100 100 100 100
100 100 100 100 100 100 100 100 94 100 62 9 5 5 5 95 100 100 100 100 100 100 100 100 100 95 68 89 68 100 100 100 100 100 100 100 100 100
100 100 100 100 100 100 100 100 100 96 94 5 5 5 5 37 83 75 100 100 100 100 100 100 100 100 100 91 100 99 100 100 100 100 100 100 100 100
100 100 100 97 100 94 70 100 100 88 12 16 21 30 5 12 5 8 76 99 99 91 89 99 97 85 53 94 88 100 100 98 100 100 100 100 100 100
100 100 100 100 100 76 100 100 36 6 5 12 5 5 5 5 5 28 17 100 80 78 76 99 76 54 74 92 78 86 85 98 100 100 100 100 100 100
69 87 95 81 62 94 100 100 80 7 5 5 5 5 5 5 5 60 64 19 19 76 88 100 97 89 71 96 76 91 80 99 100 100 100 100 100 100
100 100 100 100 100 100 100 100 100 70 39 34 9 8 10 51 96 49 99 19 8 25 80 100 100 100 100 100 100 100 82 100 100 100 100 100 100 100
100 100 100 100 100 100 100 100 100 100 94 14 21 28 29 11 87 100 45 5 7 8 62 98 100 100 100 100 100 100 100 100 100 93 100 100 100 100
100 100 100 100 100 100 100 100 100 99 95 78 39 34 39 42 38 26 15 29 33 20 36 61 98 100 100 100 100 85 100 100 100 100 100 100 100 100
100 100 100 100 100 100 100 100 100 100 100 100 99 97 99 85 48 53 18 16 23 32 49 59 95 100 100 100 100 100 100 100 100 100 100 100 99 99
100 100 100 100 100 100 100 100 100 100 100 100 100 100 100 100 100 71 100 53 68 66 65 81 89 99 100 100 100 100 100 100 100 100 100 100 100 100

GFSNE_prec_cloud_120.txt.gz
Cloud_Cover
100 100 100 100 100 94 100 100 100 100 100 99 34 69 31 59 100 100 100 59 76 100 100 100 100 100 100 100 100 83 99 100 100 100 100 100 100 100
100 100 100 97 99 17 43 88 100 100 96 100 12 21 100 82 60 100 96 95 99 100 100 100 100 100 99 100 91 100 96 100 100 98 100 100 100 100
100 100 100 47 35 85 77 100 100 100 100 15 92 100 100 100 100 100 100 87 95 100 100 100 100 100 100 100 100 100 32 93 100 100 100 100 100 100
100 19 6 22 93 100 100 100 100 100 100 98 100 98 100 100 100 100 100 100 100 100 100 100 100 77 98 100 94 88 100 100 100 100 100 100 100 100
100 100 100 75 100 22 100 100 100 100 100 100 100 100 100 64 56 100 100 100 100 100 100 100 100 100 100 100 100 100 92 100 99 98 100 100 100 100
100 100 100 100 100 100 100 100 100 100 100 99 100 99 98 100 100 100 100 100 100 100 100 100 100 100 100 100 100 100 98 100 100 100 100 100 100 100
100 100 100 100 100 100 100 100 100 100 100 100 100 100 100 100 100 100 100 100 100 100 100 100 100 100 100 100 100 100 100 99 100 100 100 100 100 100
100 100 100 100 100 100 100 100 100 100 100 100 100 100 100 100 100 66 100 100 100 100 100 100 100 100 100 100 100 100 99 100 100 100 100 100 100 100
100 100 100 100 100 100 100 100 100 100 100 100 100 100 100 100 100 100 100 100 100 100 100 100 100 100 100 100 100 100 100 100 100 100 100 100 100 100
100 100 100 100 100 100 100 100 100 100 100 77 51 80 100 90 100 100 98 100 100 100 100 100 100 100 100 100 100 100 100 100 100 100 100 100 100 100
100 100 100 100 100 100 100 100 100 100 100 100 100 97 100 100 96 96 100 100 100 100 100 100 100 100 100 100 100 100 100 100 94 100 100 100 100 100
100 100 100 100 100 100 100 100 100 100 100 100 99 39 96 78 100 66 97 100 100 100 100 100 100 100 100 100 100 100 95 40 23 93 100 100 100 100
100 100 100 100 100 100 100 100 100 100 100 78 93 100 94 99 80 72 32 100 100 100 100 100 100 100 100 100 100 94 8 21 52 100 100 100 100 100
100 100 100 100 100 100 100 100 100 100 100 100 100 93 100 100 94 21 55 42 72 100 100 100 100 100 100 96 18 51 48 84 95 100 100 98 100 100
100 100 100 100 100 100 100 100 100 100 100 100 100 100 100 47 92 38 29 31 58 66 90 100 100 100 100 100 50 69 100 85 100 100 100 100 100 100
100 100 100 100 100 100 100 100 100 100 98 85 100 73 76 52 35 30 52 56 83 76 76 75 99 100 97 100 62 98 88 100 100 97 100 100 100 100
100 100 100 100 100 100 100 100 100 100 100 100 89 56 76 26 28 34 47 43 100 24 94 78 74 90 100 100 74 87 100 93 100 100 100 100 100 100
100 100 100 100 100 100 100 100 100 100 100 98 100 63 53 11 18 29 83 89 95 72 65 74 85 96 96 100 98 93 94 92 100 100 100 100 97 100
100 100 100 100 100 100 100 100 100 100 100 100 100 10 15 23 54 100 100 100 88 73 67 39 73 93 93 94 100 99 100 100 100 100 100 100 100 100
100 100 100 100 100 100 100 100 100 100 100 100 69 26 43 38 17 84 100 100 44 74 75 83 63 24 71 100 100 100 100 99 99 100 100 100 100 100
100 100 100 100 100 100 100 91 100 100 100 100 93 50 76 89 96 96 10 34 62 76 80 60 21 8 72 60 94 100 100 100 100 100 99 100 100 100
100 100 100 100 100 100 100 100 100 100 100 100 100 100 88 100 97 75 72 75 71 83 82 100 95 81 98 91 87 100 100 100 100 100 100 100 100 100
100 100 100 100 100 100 100 100 100 100 100 100 100 100 100 98 100 100 89 100 100 100 92 97 100 100 100 100 98 100 100 100 100 100 100 100 100 100

GFSNE_prec_cloud_123.txt.gz
Cloud_Cover
100 100 100 100 100 100 99 98 100 100 93 59 22 83 74 100 100 100 100 100 90 100 97 100 100 100 100 90 90 67 100 69 27 40 51 16 81 100
100 100 100 100 100 100 100 100 100 87 76 100 100 100 100 99 76 100 100 100 100 89 100 100 100 100 99 76 2 27 6 5 20 34 5 20 99 100
100 100 100 100 100 99 95 95 100 100 100 100 100 100 98 100 100 100 100 100 98 100 100 100 100 100 100 100 100 76 92 22 32 11 16 91 95 100
100 100 100 100 86 71 97 100 100 100 100 100 89 100 99 60 91 75 100 100 100 100 100 100 100 100 100 100 86 53 60 16 25 15 67 100 100 100
100 100 100 100 100 100 100 100 100 100 100 100 51 97 29 97 100 97 100 76 67 97 98 100 100 100 81 42 96 92 84 100 16 94 74 100 100 100
100 100 100 100 100 100 100 100 100 100 100 100 100 72 100 100 100 100 97 100 100 100 100 100 100 100 100 100 100 84 95 92 95 98 100 85 100 100
100 100 100 100 100 100 100 100 100 100 100 100 100 100 100 100 82 98 100 100 97 97 100 100 100 100 100 100 100 100 100 100 100 100 100 100 93 100
100 100 100 100 98 100 100 100 100 100 100 100 100 100 38 100 100 100 100 100 89 53 100 100 100 100 100 100 100 100 100 100 76 46 100 100 100 100
100 100 99 95 100 100 100 100 100 100 100 100 100 100 100 100 100 100 100 100 100 100 100 100 100 100 100 100 100 100 100 100 93 100 100 100 100 100
100 100 100 100 94 100 100 100 100 100 100 100 100 100 100 100 100 100 100 100 100 100 100 100 100 100 100 100 100 100 100 100 100 100 100 100 100 100
100 100 100 100 100 100 100 100 100 100 100 100 100 100 100 100 100 100 100 100 100 100 100 100 100 100 100 100 100 100 100 100 100 100 100 100 100 100
100 100 100 100 100 100 100 100 100 100 100 100 100 100 100 100 100 100 100 100 100 100 100 100 100 100 100 100 100 100 100 100 100 100 32 10 50 77
100 100 100 100 100 100 100 100 100 100 100 100 100 100 100 100 100 100 100 100 100 100 100 100 100 100 100 100 100 100 100 17 83 13 5 31 79 77
100 100 100 100 100 100 100 100 100 100 100 100 100 100 100 100 100 100 100 100 100 100 100 100 100 100 100 100 100 88 92 76 5 5 5 75 62 100
100 100 100 100 100 100 100 100 100 100 100 100 100 100 100 100 100 100 99 100 100 100 100 100 100 100 100 100 100 95 100 33 38 43 93 95 99 86
100 100 100 100 100 100 100 100 100 100 100 100 100 98 99 100 100 100 100 98 100 88 94 81 100 100 100 100 100 99 100 97 62 54 92 100 80 86
100 100 100 100 100 100 100 100 100 100 100 100 100 100 100 100 99 100 97 90 34 93 100 73 50 71 92 45 88 80 86 77 52 74 100 97 86 100
100 100 100 100 100 100 100 100 100 100 100 100 100 100 100 100 100 88 75 95 100 100 100 79 98 56 10 59 76 99 32 59 100 98 100 100 81 71
100 100 100 100 100 100 100 100 100 100 100 100 100 100 93 100 19 78 77 100 100 100 100 99 98 96 90 84 51 32 11 76 100 100 100 100 100 100
100 100 100 100 100 100 100 100 100 100 100 100 100 100 100 100 100 70 29 62 100 100 100 100 100 96 58 15 76 15 39 51 99 100 100 100 100 100
100 100 100 100 100 100 100 100 100 100 100 100 100 100 100 98 100 100 86 100 100 100 100 100 100 91 76 88 71 8 5 5 67 99 100 100 100 100
100 100 100 100 100 100 100 100 100 100 100 100 100 100 100 100 100 100 100 100 100 100 100 100 100 100 100 100 100 62 7 62 87 78 100 100 100 100
100 100 100 100 100 100 100 100 100 100 100 100 100 100 100 100 100 100 100 100 100 100 100 100 100 100 100 100 100 100 99 96 100 100 86 99 100 100

GFSNE_prec_cloud_126.txt.gz
Cloud_Cover
100 100 100 100 100 100 100 78 56 82 7 39 94 40 21 4 4 30 90 100 100 100 100 88 96 100 92 95 76 83 42 100 99 100 4 5 11 5
100 100 100 100 100 100 100 100 80 100 88 72 40 99 6 34 73 82 100 100 100 100 94 40 98 100 98 56 98 66 93 99 94 47 6 5 4 26
100 100 100 100 100 100 100 100 100 100 44 58 94 79 30 74 98 34 75 72 97 100 100 100 100 92 67 79 30 100 100 74 95 25 60 25 46 36
100 100 100 100 100 100 100 100 100 100 84 98 100 67 22 7 14 18 76 100 100 100 100 100 100 100 91 28 100 100 26 94 100 78 88 100 69 99
100 100 100 100 100 100 100 100 100 100 100 100 24 32 66 66 100 100 100 100 100 100 89 100 100 100 78 92 80 100 48 100 99 100 12 73 100 100
100 100 100 100 100 100 100 100 100 100 100 100 100 100 85 100 100 100 100 100 100 99 93 96 99 100 100 100 100 78 51 98 87 100 100 83 98 100
100 100 100 100 100 100 100 100 100 100 100 100 100 100 100 100 100 100 100 100 98 82 100 100 97 100 100 100 100 100 100 100 100 100 100 79 100 100
100 100 100 100 100 100 100 100 99 98 100 100 100 100 100 100 100 100 100 100 100 100 100 100 100 100 100 100 100 100 100 99 64 100 95 100 100 100
100 100 100 100 100 100 100 100 100 100 97 99 100 100 98 100 100 100 100 100 100 100 100 100 100 100 100 100 100 100 100 100 100 100 100 99 100 100
100 100 100 100 100 100 100 100 100 100 100 100 100 100 100 100 100 100 100 100 100 100 100 100 100 100 100 100 100 100 100 100 100 100 100 100 100 100
100 100 100 100 100 100 100 100 100 100 100 100 100 100 100 100 100 100 100 100 100 100 100 100 100 100 99 100 100 100 100 100 100 100 100 100 100 100
100 100 100 100 100 100 100 100 100 100 100 100 100 100 100 100 100 100 100 100 100 100 100 100 100 100 100 100 100 100 100 100 100 100 100 100 100 100
100 100 100 100 100 100 100 100 100 100 100 100 100 100 100 100 100 100 100 100 100 100 100 100 100 100 100 100 100 100 100 99 90 67 100 100 97 58
100 100 100 100 100 100 100 100 100 100 100 100 100 100 100 100 100 100 100 100 100 100 100 100 100 100 100 100 100 98 100 87 5 5 41 55 40 95
100 100 100 100 100 100 100 100 100 100 100 100 100 100 100 100 100 100 100 100 100 100 100 100 100 100 100 100 100 100 98 66 33 25 31 72 49 92
100 100 100 100 100 100 100 100 100 100 100 100 100 100 100 100 100 100 100 100 100 100 100 100 100 100 100 100 100 100 100 45 27 32 76 98 100 80
100 100 100 100 100 100 100 100 100 100 100 100 100 100 100 100 100 100 100 100 100 100 100 100 95 98 100 100 100 70 76 31 34 27 61 100 89 88
100 100 100 100 100 100 100 100 100 100 100 100 100 100 100 100 100 100 100 100 100 100 100 87 100 100 88 34 99 13 30 36 25 38 64 100 100 98
100 100 100 100 100 100 100 100 100 100 100 100 100 100 100 100 100 100 100 100 100 100 100 100 100 99 82 59 99 80 100 84 50 94 62 74 100 100
100 100 100 100 100 100 100 100 100 100 100 100 100 100 100 100 100 100 100 100 100 100 100 100 100 100 100 100 98 92 100 91 79 66 86 99 100 100
100 100 100 100 100 100 100 100 100 100 100 100 100 100 100 100 100 100 100 100 100 100 100 100 100 100 100 100 100 100 100 100 76 100 79 98 100 100
100 100 100 100 100 100 100 100 100 100 100 100 100 100 100 100 100 100 100 100 100 100 96 96 100 100 100 100 100 100 100 100 91 100 100 86 100 100
100 100 100 100 100 100 100 100 100 100 100 100 100 100 100 100 100 100 100 100 99 100 94 100 100 100 100 100 100 100 100 100 100 68 100 100 100 100

GFSNE_prec_cloud_132.txt.gz
Cloud_Cover
100 100 100 100 100 100 100 94 99 100 100 100 100 62 30 19 74 53 94 100 98 100 100 100 95 94 30 90 100 100 100 78 95 23 92 5 32 100
100 100 100 100 100 100 100 100 100 100 100 100 86 99 98 40 73 71 63 62 100 94 96 100 100 100 100 48 99 40 99 100 12 13 98 78 7 100
100 100 100 100 100 100 100 100 100 100 100 100 100 100 100 82 100 81 100 100 76 19 47 78 100 97 78 28 23 100 100 98 83 66 52 80 100 100
100 100 100 100 100 100 100 100 100 100 100 100 99 99 76 76 92 88 86 88 63 54 60 45 86 100 100 99 100 96 99 11 6 64 94 100 100 100
100 100 100 100 100 100 100 100 100 100 100 100 100 100 100 100 100 89 100 76 99 87 37 68 100 100 100 100 100 100 98 79 13 23 100 100 100 97
100 100 100 100 100 100 100 100 100 100 100 100 100 100 100 100 100 100 98 100 92 78 100 100 100 100 100 100 100 100 100 100 97 95 100 100 100 100
100 100 100 100 100 100 100 100 100 100 100 100 100 100 100 100 100 100 100 98 97 100 100 100 100 100 100 100 100 100 100 100 100 100 100 100 100 100
100 100 100 100 100 100 100 100 100 100 100 100 100 100 100 100 100 100 100 100 100 100 100 100 100 100 100 100 100 100 100 100 100 100 100 100 100 100
100 100 100 100 100 100 100 100 100 100 100 100 100 100 100 100 100 100 100 100 100 100 100 100 100 100 100 100 100 100 100 100 100 100 100 100 100 100
100 100 100 100 100 100 100 100 100 100 100 100 100 100 100 100 100 100 100 100 100 100 100 100 89 100 100 100 100 100 100 100 100 100 100 100 100 100
100 100 100 100 100 100 100 100 100 100 100 100 100 100 100 100 100 100 100 100 100 100 100 100 100 100 100 100 100 100 100 100 100 100 100 100 100 100
100 100 100 100 100 100 100 100 100 100 100 100 100 100 100 100 100 100 100 100 100 100 100 100 100 100 100 100 100 100 100 100 100 100 100 100 100 100
100 100 100 100 100 100 100 100 100 100 100 100 100 100 100 100 100 100 100 100 100 100 100 100 100 100 100 100 100 100 100 100 100 100 100 100 100 100
100 100 100 100 100 100 100 100 100 100 100 100 100 100 100 100 100 100 100 100 100 100 100 100 100 100 100 100 100 100 100 100 100 100 100 100 100 100
100 100 100 100 100 100 100 100 100 100 100 100 100 100 100 100 100 100 100 100 100 100 100 100 100 100 100 100 100 100 100 100 100 100 100 100 100 100
100 100 100 100 100 100 100 100 100 100 100 100 100 100 100 100 100 100 100 100 100 100 100 100 100 100 100 100 100 100 100 100 100 100 100 100 100 100
96 100 100 100 100 100 100 100 100 100 100 100 100 100 100 100 100 100 100 100 100 100 100 100 100 100 100 100 100 100 100 100 100 100 100 100 100 100
100 100 100 100 100 100 100 100 100 100 100 100 100 100 100 100 100 100 100 100 100 100 100 100 100 100 100 100 100 100 100 100 100 100 100 100 75 81
100 100 100 100 100 100 100 100 100 100 100 100 100 100 100 100 100 100 100 100 100 100 100 100 100 100 100 100 100 100 100 100 100 100 100 100 100 100
100 100 100 100 100 100 100 100 100 100 100 100 100 100 100 100 100 100 100 100 100 100 100 100 100 100 100 100 100 100 100 100 100 100 100 100 100 100
100 100 100 100 100 100 100 100 100 100 100 100 100 100 100 100 100 100 100 100 100 100 100 100 100 100 100 100 100 100 100 100 100 100 100 100 100 100
56 100 100 99 100 100 100 100 100 100 100 100 100 100 100 100 100 100 100 100 100 100 100 100 100 100 100 100 100 100 100 100 100 100 100 100 100 100
6 14 37 56 92 100 100 100 100 100 100 100 100 100 100 100 100 100 100 100 100 100 100 100 100 100 100 100 100 100 100 100 100 100 100 100 100 100